GEFSCGP_prec_meanprecacc_042.txt.gz
Total_Precipitation_Accumulation
0.00 0.00 0.00 0.00 0.00 0.00 0.00 0.00 0.00 0.00 0.00 0.00 0.00 0.00 0.01 0.01 0.03 0.05 0.12 0.34 0.58 0.63 0.74 0.69 0.49 0.43 0.43 0.55 0.60 0.69 0.86 0.95 1.06 1.03 0.90 0.90 0.87 0.90 0.90 0.89 0.87 0.89 0.90 1.00
0.00 0.00 0.00 0.00 0.00 0.00 0.00 0.00 0.00 0.00 0.00 0.00 0.00 0.00 0.01 0.01 0.02 0.03 0.06 0.12 0.25 0.37 0.43 0.46 0.42 0.44 0.63 0.81 0.84 0.89 0.92 0.96 1.09 1.26 1.33 1.38 1.44 1.27 1.13 1.08 1.00 0.97 1.04 1.11
0.00 0.00 0.00 0.00 0.00 0.00 0.00 0.00 0.00 0.00 0.00 0.00 0.00 0.00 0.00 0.01 0.03 0.08 0.12 0.19 0.27 0.36 0.46 0.52 0.51 0.52 0.60 0.68 0.77 0.90 0.98 1.04 1.16 1.34 1.48 1.52 1.55 1.38 1.27 1.18 1.11 1.02 1.04 1.03
0.00 0.00 0.00 0.00 0.00 0.00 0.00 0.00 0.00 0.00 0.00 0.00 0.00 0.00 0.00 0.01 0.04 0.09 0.16 0.25 0.34 0.42 0.47 0.52 0.54 0.54 0.56 0.59 0.70 0.88 1.01 1.06 1.16 1.29 1.37 1.37 1.37 1.25 1.24 1.27 1.16 1.07 1.01 0.98
0.00 0.00 0.00 0.00 0.00 0.00 0.00 0.00 0.00 0.00 0.00 0.00 0.00 0.00 0.00 0.01 0.02 0.08 0.18 0.28 0.40 0.46 0.44 0.42 0.48 0.50 0.50 0.58 0.70 0.80 0.89 0.94 0.98 1.01 1.05 1.08 1.08 1.09 1.11 1.05 0.97 0.90 0.86 0.86
0.00 0.00 0.00 0.00 0.00 0.00 0.00 0.00 0.00 0.00 0.00 0.00 0.01 0.01 0.01 0.02 0.03 0.08 0.23 0.35 0.47 0.54 0.54 0.54 0.55 0.56 0.57 0.66 0.76 0.81 0.82 0.80 0.78 0.76 0.79 0.83 0.86 0.89 0.90 0.88 0.88 0.84 0.81 0.74
0.00 0.01 0.02 0.01 0.00 0.00 0.00 0.01 0.06 0.04 0.01 0.01 0.02 0.03 0.04 0.06 0.04 0.09 0.26 0.46 0.57 0.56 0.52 0.51 0.52 0.55 0.58 0.58 0.58 0.61 0.59 0.54 0.50 0.48 0.50 0.53 0.56 0.60 0.65 0.68 0.68 0.63 0.58 0.55
0.00 0.02 0.04 0.03 0.02 0.02 0.02 0.05 0.20 0.18 0.05 0.02 0.02 0.02 0.09 0.11 0.14 0.26 0.40 0.50 0.52 0.46 0.43 0.41 0.39 0.38 0.40 0.40 0.39 0.42 0.44 0.46 0.45 0.41 0.39 0.35 0.32 0.33 0.36 0.40 0.46 0.45 0.43 0.42
0.02 0.01 0.02 0.01 0.02 0.02 0.05 0.09 0.11 0.24 0.18 0.12 0.02 0.02 0.10 0.16 0.30 0.53 0.68 0.68 0.60 0.47 0.38 0.33 0.29 0.26 0.25 0.27 0.31 0.36 0.40 0.43 0.47 0.46 0.40 0.33 0.27 0.25 0.25 0.29 0.36 0.39 0.41 0.38
0.02 0.00 0.00 0.00 0.01 0.02 0.04 0.06 0.07 0.20 0.21 0.19 0.06 0.04 0.14 0.36 0.50 0.61 0.72 0.65 0.49 0.37 0.29 0.25 0.21 0.19 0.19 0.20 0.25 0.32 0.37 0.37 0.38 0.39 0.36 0.29 0.25 0.23 0.24 0.25 0.28 0.30 0.32 0.34
0.00 0.00 0.00 0.00 0.01 0.03 0.06 0.10 0.16 0.24 0.23 0.26 0.21 0.17 0.23 0.36 0.52 0.61 0.61 0.50 0.35 0.26 0.19 0.17 0.17 0.18 0.18 0.17 0.22 0.29 0.36 0.39 0.41 0.40 0.39 0.32 0.26 0.23 0.22 0.21 0.22 0.26 0.29 0.32
0.00 0.00 0.00 0.00 0.00 0.01 0.04 0.08 0.17 0.27 0.24 0.24 0.26 0.19 0.13 0.17 0.25 0.32 0.34 0.30 0.25 0.20 0.18 0.20 0.22 0.22 0.20 0.21 0.26 0.32 0.37 0.42 0.46 0.48 0.50 0.45 0.38 0.34 0.30 0.25 0.22 0.21 0.23 0.27
0.00 0.00 0.01 0.01 0.02 0.03 0.03 0.04 0.07 0.11 0.13 0.13 0.14 0.11 0.11 0.17 0.25 0.36 0.46 0.48 0.41 0.32 0.22 0.19 0.20 0.22 0.23 0.27 0.32 0.42 0.47 0.49 0.52 0.57 0.64 0.63 0.50 0.44 0.43 0.35 0.27 0.23 0.21 0.20
0.00 0.00 0.01 0.01 0.01 0.01 0.01 0.01 0.03 0.08 0.15 0.12 0.08 0.04 0.10 0.19 0.29 0.39 0.43 0.39 0.31 0.25 0.20 0.17 0.19 0.23 0.26 0.29 0.29 0.31 0.35 0.37 0.43 0.45 0.54 0.64 0.60 0.48 0.35 0.27 0.26 0.25 0.22 0.22
0.00 0.00 0.00 0.00 0.00 0.00 0.00 0.00 0.00 0.02 0.09 0.17 0.13 0.09 0.11 0.17 0.19 0.24 0.24 0.21 0.17 0.15 0.14 0.15 0.17 0.21 0.25 0.24 0.21 0.19 0.16 0.17 0.22 0.27 0.34 0.43 0.37 0.31 0.27 0.24 0.17 0.13 0.15 0.19
0.00 0.00 0.00 0.00 0.00 0.00 0.00 0.00 0.01 0.01 0.03 0.07 0.10 0.14 0.17 0.18 0.19 0.20 0.18 0.16 0.15 0.15 0.13 0.12 0.14 0.17 0.18 0.15 0.11 0.08 0.08 0.11 0.17 0.23 0.27 0.34 0.33 0.26 0.19 0.15 0.09 0.06 0.09 0.13
0.00 0.00 0.00 0.00 0.00 0.00 0.01 0.00 0.00 0.01 0.02 0.04 0.12 0.20 0.19 0.19 0.19 0.17 0.15 0.13 0.11 0.09 0.07 0.07 0.06 0.06 0.05 0.05 0.04 0.04 0.05 0.06 0.14 0.23 0.30 0.35 0.38 0.38 0.26 0.12 0.08 0.07 0.09 0.12
0.00 0.00 0.00 0.00 0.01 0.03 0.02 0.00 0.01 0.02 0.02 0.03 0.06 0.09 0.09 0.09 0.06 0.05 0.05 0.04 0.03 0.03 0.03 0.03 0.02 0.02 0.02 0.02 0.03 0.06 0.06 0.07 0.12 0.21 0.27 0.29 0.33 0.33 0.27 0.19 0.14 0.12 0.14 0.17
0.00 0.00 0.01 0.01 0.01 0.01 0.01 0.01 0.02 0.03 0.03 0.03 0.03 0.03 0.04 0.04 0.04 0.06 0.03 0.02 0.01 0.01 0.01 0.01 0.01 0.01 0.02 0.02 0.05 0.10 0.11 0.14 0.18 0.26 0.34 0.33 0.32 0.31 0.23 0.19 0.17 0.15 0.15 0.16
0.00 0.00 0.01 0.01 0.01 0.02 0.02 0.04 0.06 0.04 0.09 0.06 0.05 0.04 0.03 0.02 0.08 0.10 0.04 0.01 0.01 0.01 0.01 0.02 0.02 0.02 0.04 0.06 0.09 0.14 0.19 0.23 0.29 0.36 0.41 0.38 0.38 0.36 0.31 0.29 0.25 0.20 0.16 0.12
0.00 0.00 0.01 0.01 0.03 0.03 0.02 0.04 0.04 0.08 0.15 0.04 0.02 0.01 0.01 0.02 0.05 0.05 0.02 0.01 0.01 0.01 0.02 0.03 0.04 0.04 0.06 0.08 0.11 0.18 0.22 0.25 0.27 0.29 0.35 0.40 0.41 0.43 0.46 0.45 0.36 0.28 0.21 0.14
0.00 0.01 0.02 0.03 0.06 0.07 0.02 0.01 0.01 0.04 0.02 0.01 0.01 0.01 0.02 0.02 0.01 0.01 0.01 0.01 0.01 0.02 0.03 0.04 0.06 0.05 0.06 0.08 0.12 0.17 0.19 0.21 0.23 0.26 0.33 0.39 0.41 0.41 0.51 0.61 0.55 0.48 0.38 0.21
0.00 0.01 0.02 0.02 0.03 0.02 0.00 0.00 0.01 0.01 0.01 0.02 0.02 0.01 0.02 0.02 0.02 0.02 0.02 0.02 0.02 0.02 0.03 0.05 0.08 0.10 0.12 0.14 0.21 0.28 0.25 0.24 0.27 0.31 0.37 0.41 0.41 0.43 0.52 0.57 0.57 0.54 0.43 0.28
0.00 0.01 0.01 0.03 0.01 0.00 0.01 0.01 0.01 0.01 0.01 0.01 0.01 0.01 0.02 0.03 0.03 0.03 0.03 0.03 0.04 0.04 0.05 0.08 0.13 0.18 0.25 0.28 0.32 0.37 0.32 0.30 0.31 0.32 0.36 0.39 0.42 0.43 0.47 0.54 0.55 0.51 0.42 0.32
0.00 0.00 0.01 0.03 0.02 0.01 0.01 0.02 0.01 0.00 0.01 0.01 0.01 0.02 0.02 0.03 0.04 0.04 0.04 0.05 0.05 0.05 0.07 0.12 0.19 0.25 0.32 0.38 0.43 0.44 0.43 0.42 0.41 0.38 0.37 0.39 0.41 0.43 0.49 0.55 0.60 0.58 0.50 0.38
0.01 0.02 0.03 0.04 0.04 0.05 0.05 0.03 0.01 0.01 0.01 0.01 0.02 0.02 0.03 0.04 0.05 0.04 0.05 0.05 0.05 0.06 0.07 0.10 0.16 0.23 0.30 0.38 0.45 0.47 0.51 0.54 0.57 0.57 0.51 0.50 0.50 0.51 0.56 0.57 0.49 0.45 0.45 0.33

GEFSCGP_prec_meanprecacc_048.txt.gz
Total_Precipitation_Accumulation
0.00 0.00 0.00 0.00 0.00 0.00 0.00 0.00 0.00 0.00 0.00 0.00 0.00 0.00 0.01 0.02 0.03 0.05 0.12 0.34 0.58 0.64 0.75 0.70 0.50 0.43 0.44 0.56 0.61 0.70 0.86 0.95 1.06 1.03 0.91 0.91 0.88 0.91 0.91 0.90 0.89 0.92 0.93 1.04
0.00 0.00 0.00 0.00 0.00 0.00 0.00 0.00 0.00 0.00 0.00 0.00 0.00 0.00 0.01 0.02 0.03 0.04 0.06 0.12 0.26 0.38 0.44 0.47 0.42 0.44 0.63 0.81 0.84 0.89 0.92 0.96 1.09 1.26 1.33 1.38 1.44 1.27 1.13 1.09 1.01 0.98 1.06 1.13
0.00 0.00 0.00 0.00 0.00 0.00 0.00 0.00 0.00 0.00 0.00 0.00 0.00 0.00 0.00 0.01 0.04 0.08 0.13 0.20 0.28 0.38 0.47 0.52 0.52 0.52 0.61 0.69 0.77 0.90 0.98 1.04 1.16 1.34 1.48 1.52 1.55 1.38 1.27 1.18 1.11 1.02 1.05 1.04
0.00 0.00 0.00 0.00 0.00 0.00 0.00 0.00 0.00 0.00 0.00 0.00 0.00 0.00 0.00 0.01 0.04 0.10 0.17 0.27 0.36 0.44 0.49 0.53 0.55 0.54 0.56 0.60 0.71 0.88 1.01 1.06 1.16 1.29 1.38 1.37 1.37 1.25 1.25 1.27 1.16 1.07 1.01 0.98
0.00 0.00 0.00 0.00 0.00 0.00 0.00 0.00 0.00 0.00 0.00 0.00 0.00 0.00 0.00 0.01 0.03 0.09 0.19 0.30 0.42 0.49 0.47 0.45 0.49 0.50 0.51 0.58 0.70 0.80 0.89 0.94 0.98 1.01 1.06 1.09 1.08 1.09 1.11 1.05 0.97 0.90 0.86 0.86
0.00 0.00 0.00 0.00 0.00 0.00 0.00 0.00 0.00 0.00 0.00 0.00 0.01 0.01 0.01 0.02 0.03 0.08 0.23 0.37 0.51 0.58 0.58 0.57 0.57 0.57 0.57 0.66 0.76 0.81 0.82 0.81 0.79 0.77 0.80 0.84 0.87 0.90 0.90 0.88 0.88 0.84 0.81 0.74
0.00 0.01 0.02 0.01 0.01 0.00 0.00 0.01 0.06 0.04 0.01 0.01 0.02 0.03 0.04 0.06 0.04 0.09 0.27 0.48 0.61 0.61 0.56 0.53 0.54 0.55 0.58 0.58 0.58 0.61 0.59 0.55 0.51 0.49 0.51 0.54 0.57 0.61 0.66 0.69 0.68 0.64 0.58 0.55
0.00 0.02 0.04 0.03 0.02 0.02 0.02 0.05 0.20 0.18 0.05 0.02 0.02 0.02 0.09 0.11 0.14 0.26 0.41 0.51 0.53 0.49 0.46 0.45 0.41 0.40 0.41 0.41 0.40 0.43 0.45 0.47 0.47 0.43 0.41 0.36 0.33 0.34 0.36 0.40 0.46 0.45 0.43 0.42
0.02 0.01 0.02 0.01 0.02 0.02 0.05 0.09 0.11 0.24 0.18 0.12 0.02 0.03 0.10 0.16 0.31 0.53 0.69 0.69 0.61 0.49 0.41 0.37 0.33 0.29 0.27 0.29 0.32 0.38 0.41 0.44 0.48 0.47 0.40 0.34 0.28 0.25 0.26 0.30 0.37 0.39 0.41 0.38
0.02 0.00 0.00 0.00 0.01 0.02 0.04 0.06 0.08 0.20 0.22 0.19 0.06 0.04 0.14 0.36 0.50 0.62 0.73 0.66 0.51 0.40 0.31 0.27 0.23 0.22 0.21 0.23 0.27 0.34 0.38 0.37 0.38 0.39 0.37 0.30 0.25 0.24 0.25 0.26 0.29 0.30 0.32 0.34
0.00 0.00 0.00 0.00 0.01 0.03 0.06 0.10 0.16 0.25 0.23 0.26 0.22 0.18 0.23 0.37 0.52 0.61 0.62 0.51 0.36 0.27 0.20 0.19 0.19 0.20 0.20 0.20 0.24 0.31 0.37 0.40 0.41 0.40 0.39 0.32 0.26 0.23 0.22 0.21 0.22 0.26 0.29 0.33
0.00 0.00 0.00 0.00 0.00 0.01 0.04 0.08 0.17 0.27 0.24 0.25 0.26 0.20 0.14 0.17 0.25 0.32 0.34 0.31 0.26 0.21 0.18 0.21 0.23 0.23 0.21 0.22 0.27 0.33 0.38 0.43 0.47 0.49 0.50 0.45 0.39 0.34 0.30 0.26 0.23 0.22 0.24 0.28
0.00 0.00 0.01 0.01 0.02 0.03 0.03 0.04 0.07 0.11 0.13 0.13 0.15 0.12 0.11 0.17 0.25 0.36 0.46 0.48 0.41 0.32 0.22 0.19 0.21 0.23 0.24 0.28 0.33 0.42 0.48 0.50 0.52 0.57 0.65 0.64 0.50 0.45 0.43 0.37 0.30 0.26 0.23 0.21
0.00 0.00 0.01 0.01 0.01 0.01 0.01 0.01 0.03 0.09 0.16 0.14 0.09 0.05 0.11 0.19 0.29 0.39 0.43 0.39 0.31 0.25 0.20 0.17 0.20 0.23 0.26 0.29 0.29 0.32 0.35 0.38 0.44 0.45 0.55 0.65 0.60 0.48 0.36 0.28 0.28 0.28 0.25 0.23
0.00 0.00 0.00 0.00 0.00 0.00 0.00 0.00 0.00 0.03 0.10 0.19 0.15 0.10 0.12 0.17 0.19 0.24 0.24 0.21 0.17 0.16 0.14 0.15 0.18 0.21 0.25 0.24 0.21 0.19 0.17 0.17 0.23 0.27 0.34 0.43 0.38 0.31 0.28 0.24 0.18 0.15 0.18 0.21
0.00 0.00 0.00 0.00 0.00 0.00 0.00 0.00 0.01 0.02 0.03 0.08 0.11 0.14 0.17 0.18 0.19 0.20 0.19 0.17 0.16 0.16 0.13 0.12 0.14 0.17 0.19 0.15 0.11 0.08 0.08 0.11 0.17 0.23 0.27 0.34 0.33 0.26 0.20 0.15 0.10 0.08 0.12 0.17
0.00 0.00 0.00 0.00 0.00 0.01 0.01 0.01 0.01 0.01 0.02 0.04 0.12 0.20 0.19 0.20 0.19 0.18 0.16 0.14 0.12 0.10 0.08 0.07 0.06 0.06 0.05 0.05 0.04 0.05 0.05 0.06 0.14 0.23 0.30 0.35 0.39 0.38 0.26 0.13 0.09 0.09 0.13 0.18
0.01 0.01 0.00 0.00 0.01 0.04 0.03 0.00 0.01 0.02 0.02 0.03 0.06 0.09 0.10 0.09 0.07 0.06 0.06 0.05 0.03 0.03 0.03 0.03 0.02 0.02 0.02 0.02 0.04 0.07 0.06 0.07 0.12 0.21 0.28 0.30 0.33 0.34 0.28 0.20 0.16 0.16 0.19 0.24
0.00 0.01 0.01 0.01 0.01 0.01 0.01 0.01 0.02 0.04 0.04 0.03 0.03 0.04 0.04 0.04 0.04 0.06 0.03 0.02 0.01 0.01 0.01 0.01 0.01 0.01 0.02 0.02 0.05 0.10 0.11 0.14 0.18 0.26 0.34 0.33 0.33 0.31 0.24 0.20 0.20 0.20 0.22 0.25
0.00 0.00 0.01 0.01 0.01 0.03 0.02 0.04 0.06 0.04 0.11 0.07 0.05 0.04 0.03 0.02 0.08 0.10 0.04 0.01 0.01 0.01 0.01 0.02 0.02 0.02 0.04 0.06 0.09 0.14 0.19 0.23 0.29 0.37 0.42 0.39 0.39 0.37 0.32 0.31 0.29 0.26 0.26 0.25
0.00 0.00 0.01 0.01 0.03 0.03 0.02 0.04 0.04 0.08 0.15 0.04 0.02 0.01 0.01 0.02 0.05 0.05 0.02 0.01 0.01 0.01 0.02 0.03 0.04 0.04 0.06 0.08 0.11 0.18 0.23 0.25 0.28 0.30 0.36 0.40 0.43 0.45 0.49 0.49 0.42 0.36 0.32 0.30
0.00 0.01 0.02 0.03 0.06 0.08 0.02 0.01 0.01 0.04 0.02 0.01 0.01 0.01 0.02 0.02 0.01 0.01 0.01 0.01 0.01 0.02 0.03 0.04 0.06 0.05 0.06 0.09 0.13 0.18 0.20 0.22 0.24 0.27 0.34 0.40 0.43 0.43 0.52 0.65 0.61 0.58 0.51 0.41
0.00 0.01 0.02 0.02 0.04 0.02 0.00 0.00 0.01 0.01 0.01 0.02 0.02 0.01 0.02 0.02 0.02 0.02 0.02 0.02 0.02 0.02 0.03 0.05 0.08 0.10 0.12 0.15 0.22 0.29 0.26 0.26 0.29 0.33 0.39 0.42 0.42 0.45 0.54 0.61 0.64 0.64 0.58 0.49
0.00 0.01 0.01 0.03 0.01 0.00 0.01 0.01 0.01 0.01 0.01 0.01 0.01 0.01 0.02 0.03 0.03 0.03 0.03 0.03 0.04 0.04 0.06 0.09 0.13 0.19 0.26 0.29 0.33 0.38 0.33 0.32 0.33 0.35 0.39 0.42 0.44 0.46 0.50 0.59 0.61 0.59 0.54 0.52
0.00 0.00 0.01 0.03 0.02 0.01 0.01 0.02 0.01 0.00 0.01 0.01 0.01 0.02 0.02 0.03 0.04 0.04 0.04 0.05 0.05 0.05 0.07 0.12 0.19 0.26 0.32 0.39 0.44 0.46 0.45 0.45 0.44 0.41 0.40 0.42 0.44 0.46 0.53 0.60 0.66 0.65 0.59 0.52
0.01 0.02 0.03 0.04 0.04 0.05 0.05 0.03 0.01 0.01 0.01 0.01 0.02 0.02 0.03 0.04 0.05 0.04 0.05 0.05 0.05 0.06 0.07 0.11 0.16 0.23 0.31 0.39 0.46 0.48 0.53 0.58 0.61 0.61 0.54 0.53 0.54 0.56 0.61 0.63 0.57 0.51 0.51 0.43

GEFSCGP_prec_meanprecacc_054.txt.gz
Total_Precipitation_Accumulation
0.00 0.00 0.00 0.00 0.00 0.00 0.00 0.00 0.00 0.00 0.00 0.00 0.00 0.00 0.01 0.03 0.05 0.08 0.19 0.40 0.62 0.67 0.79 0.78 0.56 0.47 0.48 0.61 0.70 0.80 0.95 1.00 1.11 1.07 0.94 0.93 0.89 0.92 0.92 0.91 0.89 0.92 0.94 1.04
0.00 0.00 0.00 0.00 0.00 0.00 0.00 0.00 0.00 0.00 0.00 0.00 0.00 0.00 0.01 0.02 0.04 0.05 0.08 0.17 0.31 0.45 0.53 0.56 0.52 0.52 0.71 0.93 0.99 1.02 1.01 1.02 1.14 1.30 1.36 1.39 1.45 1.27 1.13 1.09 1.01 0.98 1.06 1.13
0.00 0.00 0.00 0.00 0.00 0.00 0.00 0.00 0.00 0.00 0.00 0.00 0.00 0.00 0.01 0.02 0.05 0.14 0.21 0.28 0.36 0.49 0.60 0.65 0.64 0.64 0.74 0.86 0.96 1.03 1.07 1.10 1.20 1.37 1.51 1.54 1.56 1.39 1.28 1.18 1.11 1.02 1.05 1.04
0.00 0.00 0.00 0.00 0.00 0.00 0.00 0.00 0.00 0.00 0.00 0.00 0.00 0.00 0.01 0.02 0.13 0.30 0.40 0.48 0.55 0.67 0.68 0.72 0.74 0.73 0.77 0.82 0.92 1.03 1.09 1.13 1.21 1.32 1.41 1.40 1.39 1.27 1.26 1.27 1.16 1.07 1.01 0.98
0.00 0.00 0.00 0.00 0.00 0.00 0.00 0.00 0.00 0.00 0.00 0.00 0.00 0.00 0.01 0.01 0.11 0.31 0.44 0.45 0.59 0.63 0.59 0.63 0.70 0.71 0.68 0.73 0.84 0.93 0.99 1.01 1.04 1.05 1.10 1.13 1.12 1.12 1.13 1.07 0.98 0.91 0.86 0.87
0.00 0.00 0.00 0.00 0.00 0.00 0.00 0.00 0.00 0.00 0.01 0.02 0.03 0.04 0.04 0.05 0.09 0.19 0.32 0.42 0.56 0.64 0.65 0.66 0.67 0.66 0.66 0.73 0.81 0.87 0.89 0.89 0.86 0.83 0.86 0.90 0.92 0.94 0.94 0.91 0.90 0.85 0.81 0.74
0.01 0.01 0.02 0.01 0.01 0.01 0.00 0.01 0.07 0.07 0.10 0.11 0.11 0.07 0.08 0.09 0.06 0.10 0.27 0.48 0.63 0.64 0.61 0.60 0.60 0.62 0.65 0.66 0.66 0.67 0.67 0.68 0.63 0.59 0.60 0.63 0.65 0.67 0.71 0.73 0.71 0.66 0.58 0.55
0.02 0.04 0.05 0.03 0.02 0.02 0.02 0.05 0.21 0.19 0.07 0.06 0.06 0.06 0.17 0.23 0.19 0.27 0.41 0.51 0.54 0.50 0.49 0.49 0.49 0.50 0.51 0.49 0.48 0.51 0.53 0.58 0.59 0.55 0.53 0.46 0.42 0.41 0.42 0.51 0.53 0.49 0.46 0.44
0.02 0.02 0.02 0.01 0.02 0.02 0.05 0.09 0.11 0.24 0.18 0.12 0.04 0.08 0.22 0.37 0.43 0.58 0.70 0.69 0.62 0.50 0.43 0.40 0.38 0.37 0.36 0.35 0.38 0.45 0.49 0.52 0.57 0.55 0.50 0.45 0.39 0.36 0.36 0.40 0.46 0.46 0.49 0.44
0.02 0.00 0.01 0.00 0.01 0.02 0.04 0.06 0.08 0.20 0.22 0.20 0.07 0.12 0.31 0.64 0.74 0.70 0.75 0.67 0.51 0.40 0.32 0.28 0.25 0.24 0.24 0.25 0.30 0.37 0.41 0.41 0.42 0.43 0.42 0.36 0.34 0.34 0.35 0.37 0.38 0.40 0.41 0.43
0.00 0.00 0.00 0.01 0.01 0.03 0.07 0.10 0.16 0.25 0.23 0.26 0.24 0.24 0.32 0.48 0.62 0.66 0.63 0.52 0.37 0.27 0.20 0.19 0.19 0.20 0.21 0.21 0.25 0.32 0.39 0.42 0.43 0.42 0.41 0.35 0.30 0.29 0.29 0.30 0.31 0.36 0.38 0.40
0.00 0.00 0.00 0.01 0.01 0.02 0.04 0.08 0.17 0.28 0.25 0.25 0.28 0.26 0.18 0.21 0.29 0.35 0.36 0.31 0.26 0.21 0.18 0.21 0.23 0.23 0.21 0.22 0.27 0.34 0.39 0.44 0.48 0.49 0.50 0.46 0.40 0.36 0.33 0.31 0.29 0.29 0.31 0.35
0.00 0.00 0.01 0.02 0.04 0.05 0.04 0.04 0.07 0.11 0.13 0.13 0.20 0.21 0.17 0.21 0.29 0.39 0.48 0.49 0.41 0.32 0.22 0.19 0.21 0.23 0.24 0.28 0.33 0.43 0.48 0.50 0.52 0.58 0.65 0.64 0.51 0.45 0.44 0.38 0.32 0.30 0.28 0.28
0.00 0.00 0.01 0.01 0.01 0.02 0.01 0.02 0.03 0.09 0.17 0.15 0.13 0.16 0.19 0.23 0.31 0.39 0.44 0.39 0.31 0.25 0.20 0.17 0.20 0.23 0.26 0.29 0.29 0.32 0.36 0.38 0.44 0.46 0.55 0.65 0.61 0.49 0.36 0.29 0.29 0.30 0.29 0.29
0.00 0.00 0.00 0.00 0.00 0.00 0.00 0.00 0.00 0.03 0.11 0.23 0.18 0.15 0.18 0.19 0.19 0.24 0.24 0.21 0.17 0.16 0.14 0.15 0.18 0.21 0.25 0.25 0.22 0.19 0.17 0.17 0.23 0.27 0.34 0.44 0.38 0.32 0.28 0.25 0.19 0.16 0.20 0.25
0.00 0.00 0.00 0.00 0.01 0.00 0.00 0.01 0.01 0.02 0.03 0.08 0.12 0.17 0.18 0.18 0.19 0.20 0.19 0.17 0.16 0.16 0.13 0.12 0.14 0.17 0.19 0.16 0.11 0.08 0.08 0.11 0.17 0.23 0.28 0.35 0.34 0.27 0.20 0.16 0.10 0.09 0.14 0.19
0.00 0.00 0.00 0.00 0.01 0.02 0.05 0.03 0.01 0.01 0.02 0.04 0.13 0.21 0.19 0.20 0.19 0.18 0.16 0.14 0.12 0.10 0.08 0.07 0.06 0.06 0.05 0.05 0.04 0.05 0.05 0.06 0.14 0.23 0.30 0.35 0.39 0.38 0.27 0.14 0.10 0.11 0.15 0.20
0.01 0.01 0.00 0.00 0.01 0.09 0.08 0.01 0.01 0.02 0.02 0.03 0.06 0.09 0.10 0.09 0.07 0.06 0.06 0.05 0.03 0.03 0.03 0.03 0.02 0.02 0.02 0.02 0.04 0.07 0.06 0.07 0.12 0.21 0.28 0.30 0.34 0.34 0.29 0.22 0.19 0.20 0.23 0.29
0.00 0.01 0.01 0.01 0.02 0.06 0.02 0.02 0.02 0.04 0.04 0.03 0.03 0.04 0.04 0.04 0.04 0.06 0.03 0.02 0.01 0.01 0.01 0.01 0.01 0.01 0.02 0.02 0.05 0.10 0.11 0.14 0.18 0.26 0.34 0.34 0.34 0.32 0.26 0.22 0.24 0.25 0.28 0.31
0.00 0.00 0.01 0.01 0.02 0.05 0.04 0.04 0.06 0.04 0.11 0.08 0.05 0.04 0.03 0.02 0.08 0.10 0.04 0.01 0.01 0.01 0.01 0.02 0.02 0.02 0.04 0.06 0.09 0.14 0.20 0.24 0.30 0.38 0.43 0.40 0.41 0.41 0.36 0.35 0.35 0.32 0.33 0.31
0.00 0.00 0.01 0.01 0.03 0.04 0.02 0.04 0.04 0.08 0.15 0.04 0.02 0.01 0.01 0.02 0.05 0.05 0.02 0.01 0.01 0.01 0.02 0.03 0.04 0.04 0.06 0.08 0.12 0.20 0.25 0.27 0.30 0.32 0.39 0.44 0.48 0.52 0.55 0.57 0.51 0.44 0.40 0.38
0.00 0.01 0.02 0.03 0.07 0.09 0.02 0.01 0.01 0.04 0.02 0.01 0.01 0.01 0.02 0.02 0.01 0.01 0.01 0.01 0.01 0.02 0.03 0.04 0.06 0.05 0.07 0.09 0.14 0.20 0.23 0.25 0.28 0.31 0.39 0.46 0.49 0.48 0.55 0.73 0.72 0.69 0.63 0.52
0.00 0.01 0.02 0.02 0.04 0.02 0.00 0.00 0.01 0.01 0.01 0.02 0.02 0.01 0.02 0.02 0.02 0.02 0.02 0.02 0.02 0.02 0.03 0.05 0.09 0.10 0.12 0.15 0.24 0.32 0.29 0.29 0.33 0.38 0.44 0.48 0.48 0.52 0.61 0.69 0.73 0.75 0.70 0.61
0.00 0.01 0.01 0.03 0.01 0.00 0.01 0.01 0.01 0.01 0.01 0.01 0.01 0.01 0.02 0.03 0.03 0.03 0.03 0.03 0.04 0.04 0.06 0.09 0.13 0.19 0.26 0.30 0.35 0.42 0.37 0.37 0.40 0.41 0.45 0.49 0.52 0.53 0.57 0.68 0.71 0.69 0.64 0.63
0.00 0.00 0.01 0.03 0.02 0.01 0.01 0.02 0.01 0.00 0.01 0.01 0.01 0.02 0.02 0.03 0.04 0.04 0.04 0.05 0.05 0.05 0.07 0.12 0.19 0.27 0.34 0.41 0.47 0.49 0.49 0.51 0.52 0.48 0.47 0.50 0.52 0.54 0.60 0.67 0.74 0.73 0.67 0.61
0.01 0.02 0.03 0.04 0.04 0.05 0.05 0.03 0.01 0.01 0.01 0.01 0.02 0.02 0.03 0.04 0.05 0.04 0.05 0.05 0.05 0.06 0.07 0.11 0.18 0.26 0.34 0.42 0.49 0.51 0.58 0.66 0.70 0.69 0.61 0.60 0.62 0.64 0.69 0.71 0.64 0.56 0.54 0.45

GEFSCGP_prec_meanprecacc_060.txt.gz
Total_Precipitation_Accumulation
0.00 0.00 0.00 0.00 0.00 0.00 0.00 0.00 0.00 0.00 0.00 0.00 0.00 0.00 0.01 0.04 0.07 0.11 0.24 0.49 0.76 0.88 1.16 1.38 1.39 1.44 1.48 1.65 1.69 1.79 2.07 2.12 2.03 1.76 1.41 1.29 1.19 1.16 1.10 1.02 0.96 0.98 0.98 1.07
0.00 0.00 0.00 0.00 0.00 0.00 0.00 0.00 0.00 0.00 0.00 0.00 0.00 0.00 0.01 0.03 0.05 0.09 0.18 0.34 0.56 0.85 1.09 1.29 1.34 1.29 1.52 1.94 2.12 2.10 1.99 2.00 1.90 1.79 1.75 1.76 1.77 1.52 1.27 1.16 1.06 1.03 1.10 1.18
0.00 0.00 0.00 0.00 0.00 0.00 0.00 0.00 0.00 0.00 0.00 0.00 0.00 0.00 0.02 0.04 0.09 0.21 0.35 0.50 0.63 0.92 1.15 1.24 1.27 1.23 1.32 1.50 1.67 1.76 1.79 1.66 1.59 1.65 1.77 1.81 1.82 1.59 1.38 1.26 1.19 1.12 1.12 1.09
0.00 0.00 0.00 0.00 0.00 0.00 0.00 0.00 0.00 0.00 0.00 0.00 0.00 0.01 0.03 0.05 0.18 0.37 0.51 0.66 0.85 1.08 1.04 1.07 1.15 1.11 1.16 1.26 1.35 1.38 1.40 1.38 1.40 1.49 1.58 1.56 1.53 1.41 1.36 1.36 1.25 1.15 1.07 1.04
0.00 0.00 0.00 0.00 0.00 0.00 0.00 0.00 0.00 0.00 0.00 0.00 0.01 0.02 0.04 0.08 0.21 0.42 0.57 0.62 0.80 0.90 0.81 0.79 0.85 0.86 0.89 0.93 1.04 1.12 1.20 1.18 1.19 1.21 1.25 1.26 1.23 1.23 1.23 1.16 1.07 0.98 0.92 0.95
0.01 0.01 0.01 0.00 0.00 0.00 0.00 0.00 0.00 0.00 0.01 0.03 0.06 0.07 0.09 0.20 0.30 0.38 0.54 0.62 0.74 0.76 0.74 0.80 0.78 0.74 0.76 0.84 0.93 1.00 1.04 1.05 1.05 1.05 1.06 1.06 1.05 1.05 1.04 0.99 0.98 0.92 0.87 0.80
0.03 0.03 0.02 0.01 0.01 0.01 0.01 0.01 0.07 0.09 0.12 0.15 0.15 0.12 0.20 0.37 0.41 0.45 0.56 0.70 0.76 0.72 0.66 0.66 0.67 0.68 0.73 0.75 0.74 0.76 0.79 0.82 0.78 0.75 0.79 0.80 0.79 0.77 0.80 0.81 0.79 0.73 0.64 0.61
0.05 0.08 0.06 0.03 0.02 0.02 0.03 0.05 0.21 0.20 0.08 0.08 0.11 0.14 0.37 0.55 0.56 0.55 0.62 0.70 0.64 0.56 0.53 0.53 0.52 0.53 0.56 0.53 0.51 0.54 0.58 0.64 0.68 0.67 0.66 0.58 0.53 0.52 0.51 0.60 0.61 0.57 0.53 0.51
0.03 0.03 0.03 0.02 0.02 0.03 0.07 0.10 0.12 0.25 0.18 0.14 0.10 0.21 0.41 0.61 0.65 0.71 0.81 0.82 0.70 0.56 0.45 0.41 0.39 0.38 0.36 0.36 0.39 0.46 0.50 0.54 0.59 0.59 0.54 0.49 0.44 0.41 0.41 0.45 0.51 0.52 0.56 0.52
0.02 0.00 0.01 0.01 0.01 0.03 0.07 0.07 0.09 0.21 0.23 0.22 0.11 0.24 0.47 0.79 0.85 0.80 0.87 0.76 0.56 0.42 0.33 0.28 0.25 0.24 0.24 0.25 0.30 0.38 0.42 0.41 0.43 0.43 0.42 0.37 0.35 0.36 0.37 0.39 0.41 0.43 0.46 0.48
0.00 0.00 0.00 0.02 0.02 0.05 0.08 0.11 0.18 0.26 0.25 0.30 0.28 0.34 0.45 0.61 0.74 0.82 0.77 0.60 0.40 0.28 0.21 0.19 0.19 0.20 0.21 0.21 0.25 0.32 0.39 0.42 0.43 0.42 0.41 0.35 0.30 0.29 0.29 0.31 0.32 0.37 0.39 0.42
0.00 0.00 0.00 0.01 0.04 0.05 0.07 0.10 0.19 0.30 0.26 0.26 0.32 0.35 0.25 0.29 0.39 0.44 0.41 0.33 0.27 0.21 0.19 0.21 0.23 0.23 0.21 0.22 0.27 0.34 0.39 0.44 0.48 0.49 0.50 0.46 0.40 0.36 0.33 0.31 0.29 0.30 0.32 0.36
0.00 0.00 0.01 0.03 0.07 0.09 0.08 0.08 0.10 0.13 0.15 0.15 0.25 0.28 0.21 0.24 0.31 0.41 0.49 0.49 0.41 0.32 0.22 0.19 0.21 0.23 0.24 0.28 0.33 0.43 0.48 0.50 0.52 0.58 0.65 0.64 0.51 0.45 0.44 0.38 0.32 0.30 0.29 0.28
0.00 0.00 0.01 0.02 0.03 0.05 0.06 0.08 0.06 0.11 0.20 0.18 0.15 0.20 0.22 0.25 0.32 0.40 0.44 0.40 0.32 0.25 0.20 0.17 0.20 0.23 0.26 0.29 0.29 0.32 0.36 0.38 0.44 0.46 0.55 0.65 0.61 0.49 0.36 0.29 0.29 0.30 0.29 0.30
0.00 0.00 0.00 0.01 0.01 0.04 0.07 0.07 0.05 0.07 0.14 0.25 0.19 0.16 0.19 0.20 0.20 0.24 0.25 0.21 0.17 0.16 0.14 0.15 0.18 0.21 0.25 0.25 0.22 0.19 0.17 0.17 0.23 0.27 0.34 0.44 0.38 0.32 0.29 0.25 0.19 0.17 0.20 0.25
0.00 0.00 0.00 0.00 0.01 0.03 0.06 0.09 0.06 0.05 0.05 0.09 0.12 0.17 0.18 0.18 0.19 0.20 0.19 0.17 0.16 0.16 0.13 0.12 0.14 0.17 0.19 0.16 0.11 0.08 0.08 0.11 0.17 0.23 0.28 0.35 0.34 0.27 0.20 0.16 0.11 0.10 0.14 0.20
0.00 0.00 0.00 0.00 0.01 0.03 0.09 0.09 0.05 0.03 0.02 0.04 0.13 0.21 0.19 0.20 0.19 0.18 0.16 0.14 0.12 0.10 0.08 0.07 0.06 0.06 0.05 0.05 0.04 0.05 0.05 0.06 0.14 0.23 0.31 0.35 0.39 0.39 0.27 0.14 0.10 0.12 0.16 0.21
0.01 0.01 0.00 0.00 0.02 0.12 0.10 0.03 0.02 0.02 0.02 0.03 0.06 0.09 0.10 0.09 0.07 0.06 0.06 0.05 0.03 0.03 0.03 0.03 0.02 0.02 0.02 0.02 0.04 0.07 0.06 0.07 0.12 0.21 0.28 0.30 0.34 0.34 0.29 0.22 0.19 0.20 0.24 0.29
0.01 0.01 0.01 0.01 0.02 0.08 0.04 0.02 0.02 0.04 0.04 0.03 0.03 0.04 0.04 0.04 0.04 0.06 0.03 0.02 0.01 0.01 0.01 0.01 0.01 0.01 0.02 0.02 0.05 0.10 0.11 0.14 0.18 0.26 0.34 0.34 0.34 0.33 0.26 0.23 0.24 0.26 0.29 0.31
0.01 0.00 0.01 0.01 0.02 0.07 0.05 0.04 0.06 0.04 0.11 0.08 0.05 0.04 0.03 0.02 0.08 0.10 0.04 0.01 0.01 0.01 0.01 0.02 0.02 0.02 0.04 0.06 0.09 0.14 0.20 0.24 0.30 0.38 0.43 0.41 0.42 0.42 0.36 0.36 0.35 0.33 0.34 0.31
0.00 0.01 0.01 0.01 0.03 0.04 0.02 0.04 0.04 0.08 0.15 0.04 0.02 0.01 0.01 0.02 0.05 0.05 0.02 0.01 0.01 0.01 0.02 0.03 0.04 0.04 0.06 0.08 0.12 0.21 0.25 0.28 0.31 0.33 0.40 0.45 0.49 0.53 0.56 0.57 0.52 0.45 0.41 0.39
0.01 0.01 0.02 0.03 0.07 0.09 0.02 0.01 0.01 0.04 0.02 0.01 0.01 0.01 0.02 0.02 0.01 0.01 0.01 0.01 0.01 0.02 0.03 0.04 0.06 0.05 0.07 0.09 0.15 0.21 0.24 0.26 0.29 0.33 0.40 0.47 0.51 0.50 0.56 0.74 0.73 0.70 0.65 0.54
0.00 0.01 0.02 0.02 0.04 0.02 0.00 0.00 0.01 0.01 0.01 0.02 0.02 0.01 0.02 0.02 0.02 0.02 0.02 0.02 0.02 0.02 0.03 0.05 0.09 0.10 0.12 0.15 0.25 0.34 0.31 0.31 0.36 0.41 0.47 0.50 0.50 0.54 0.63 0.71 0.75 0.77 0.72 0.63
0.00 0.01 0.01 0.03 0.01 0.00 0.01 0.01 0.01 0.01 0.01 0.01 0.01 0.01 0.02 0.03 0.03 0.03 0.03 0.03 0.04 0.04 0.06 0.09 0.13 0.19 0.27 0.31 0.37 0.44 0.40 0.41 0.44 0.46 0.49 0.52 0.54 0.55 0.59 0.72 0.74 0.71 0.66 0.65
0.00 0.00 0.01 0.03 0.02 0.01 0.01 0.02 0.01 0.00 0.01 0.01 0.01 0.02 0.02 0.03 0.04 0.04 0.04 0.05 0.05 0.06 0.07 0.13 0.20 0.28 0.35 0.43 0.49 0.51 0.52 0.56 0.57 0.54 0.51 0.54 0.56 0.58 0.63 0.70 0.76 0.74 0.69 0.63
0.01 0.02 0.03 0.04 0.04 0.05 0.05 0.03 0.01 0.01 0.01 0.01 0.02 0.02 0.03 0.04 0.05 0.04 0.05 0.05 0.05 0.06 0.08 0.13 0.19 0.28 0.36 0.45 0.51 0.54 0.62 0.72 0.77 0.76 0.67 0.65 0.67 0.68 0.73 0.73 0.65 0.57 0.55 0.46

GEFSCGP_prec_meanprecacc_066.txt.gz
Total_Precipitation_Accumulation
0.00 0.00 0.00 0.00 0.00 0.00 0.00 0.00 0.00 0.00 0.00 0.00 0.00 0.01 0.02 0.05 0.09 0.13 0.26 0.52 0.80 0.94 1.23 1.48 1.52 1.62 1.68 1.94 2.17 2.37 2.78 2.89 2.78 2.53 2.19 1.96 1.78 1.70 1.57 1.44 1.33 1.28 1.24 1.28
0.00 0.00 0.00 0.00 0.00 0.00 0.00 0.00 0.00 0.00 0.00 0.00 0.00 0.01 0.02 0.04 0.07 0.11 0.21 0.38 0.63 0.94 1.18 1.37 1.43 1.39 1.64 2.09 2.38 2.41 2.35 2.47 2.52 2.40 2.26 2.20 2.21 1.94 1.71 1.58 1.39 1.29 1.31 1.34
0.00 0.00 0.00 0.00 0.00 0.00 0.00 0.00 0.00 0.00 0.00 0.00 0.00 0.01 0.03 0.05 0.11 0.23 0.38 0.55 0.70 1.00 1.24 1.33 1.36 1.32 1.39 1.55 1.73 1.84 1.87 1.78 1.76 1.82 1.94 1.97 2.00 1.79 1.60 1.50 1.43 1.34 1.29 1.21
0.00 0.00 0.00 0.00 0.00 0.00 0.00 0.00 0.00 0.00 0.00 0.00 0.01 0.01 0.04 0.06 0.19 0.39 0.53 0.70 0.91 1.14 1.11 1.14 1.21 1.17 1.20 1.30 1.40 1.42 1.44 1.43 1.45 1.56 1.65 1.64 1.62 1.52 1.47 1.47 1.37 1.29 1.22 1.16
0.01 0.00 0.00 0.00 0.00 0.00 0.00 0.00 0.00 0.00 0.00 0.00 0.01 0.02 0.05 0.09 0.22 0.45 0.61 0.66 0.85 0.94 0.86 0.83 0.89 0.90 0.93 0.97 1.08 1.17 1.24 1.24 1.25 1.28 1.32 1.35 1.33 1.33 1.35 1.28 1.20 1.12 1.07 1.09
0.01 0.01 0.01 0.01 0.00 0.01 0.00 0.00 0.00 0.01 0.02 0.03 0.07 0.07 0.10 0.21 0.31 0.41 0.57 0.66 0.78 0.80 0.78 0.83 0.82 0.78 0.80 0.87 0.97 1.04 1.10 1.11 1.11 1.13 1.15 1.15 1.15 1.16 1.15 1.11 1.10 1.05 1.00 0.93
0.03 0.04 0.03 0.02 0.01 0.01 0.01 0.02 0.07 0.09 0.12 0.15 0.16 0.12 0.21 0.38 0.42 0.47 0.58 0.73 0.80 0.74 0.69 0.68 0.68 0.70 0.75 0.76 0.76 0.79 0.81 0.85 0.82 0.81 0.85 0.87 0.87 0.86 0.88 0.88 0.84 0.78 0.70 0.68
0.05 0.08 0.06 0.04 0.02 0.02 0.04 0.07 0.23 0.21 0.10 0.09 0.12 0.16 0.39 0.56 0.57 0.56 0.64 0.72 0.67 0.58 0.54 0.53 0.52 0.53 0.56 0.53 0.52 0.55 0.58 0.65 0.69 0.68 0.68 0.60 0.56 0.55 0.54 0.62 0.63 0.59 0.56 0.54
0.03 0.03 0.03 0.02 0.03 0.05 0.08 0.11 0.14 0.27 0.20 0.16 0.12 0.22 0.43 0.62 0.66 0.72 0.83 0.83 0.71 0.56 0.45 0.41 0.40 0.38 0.36 0.36 0.39 0.46 0.51 0.54 0.59 0.59 0.54 0.49 0.44 0.41 0.41 0.46 0.52 0.53 0.57 0.53
0.02 0.01 0.01 0.01 0.02 0.04 0.08 0.08 0.10 0.24 0.26 0.23 0.13 0.26 0.49 0.80 0.86 0.81 0.88 0.77 0.57 0.43 0.33 0.29 0.25 0.24 0.24 0.25 0.30 0.38 0.42 0.41 0.43 0.43 0.43 0.37 0.36 0.36 0.37 0.39 0.41 0.43 0.46 0.49
0.01 0.00 0.00 0.02 0.03 0.05 0.09 0.12 0.20 0.28 0.27 0.32 0.30 0.37 0.48 0.62 0.75 0.83 0.78 0.60 0.40 0.28 0.21 0.19 0.19 0.20 0.21 0.21 0.25 0.32 0.39 0.42 0.43 0.42 0.41 0.35 0.30 0.29 0.29 0.31 0.32 0.37 0.39 0.42
0.00 0.00 0.00 0.01 0.04 0.06 0.07 0.11 0.20 0.31 0.28 0.29 0.34 0.37 0.27 0.30 0.39 0.44 0.42 0.34 0.27 0.21 0.19 0.21 0.23 0.23 0.21 0.23 0.27 0.34 0.39 0.44 0.48 0.49 0.50 0.46 0.40 0.36 0.34 0.31 0.29 0.30 0.32 0.36
0.00 0.00 0.01 0.03 0.07 0.10 0.09 0.09 0.11 0.15 0.17 0.17 0.25 0.29 0.21 0.24 0.32 0.41 0.49 0.49 0.41 0.32 0.23 0.19 0.21 0.23 0.24 0.28 0.33 0.43 0.48 0.50 0.52 0.58 0.65 0.64 0.51 0.45 0.44 0.38 0.32 0.30 0.29 0.28
0.00 0.00 0.01 0.03 0.03 0.05 0.08 0.09 0.07 0.12 0.20 0.18 0.16 0.20 0.22 0.25 0.32 0.40 0.44 0.40 0.32 0.25 0.20 0.17 0.20 0.23 0.26 0.29 0.29 0.32 0.36 0.38 0.44 0.46 0.55 0.65 0.61 0.49 0.36 0.29 0.29 0.30 0.29 0.30
0.00 0.00 0.00 0.01 0.02 0.04 0.08 0.08 0.06 0.08 0.14 0.25 0.19 0.16 0.19 0.20 0.20 0.24 0.25 0.21 0.17 0.16 0.14 0.15 0.18 0.21 0.25 0.25 0.22 0.19 0.17 0.17 0.23 0.27 0.34 0.44 0.38 0.32 0.29 0.25 0.19 0.17 0.20 0.25
0.00 0.00 0.00 0.01 0.02 0.03 0.06 0.09 0.07 0.05 0.05 0.09 0.12 0.17 0.18 0.18 0.19 0.20 0.19 0.17 0.16 0.16 0.13 0.12 0.14 0.17 0.19 0.16 0.11 0.08 0.08 0.11 0.17 0.23 0.28 0.35 0.34 0.27 0.20 0.16 0.11 0.10 0.14 0.20
0.01 0.01 0.00 0.00 0.01 0.03 0.09 0.09 0.05 0.03 0.02 0.04 0.13 0.21 0.19 0.20 0.19 0.18 0.16 0.14 0.12 0.10 0.08 0.07 0.06 0.06 0.05 0.05 0.04 0.05 0.05 0.06 0.14 0.23 0.31 0.35 0.39 0.39 0.27 0.14 0.10 0.12 0.16 0.21
0.02 0.01 0.00 0.00 0.02 0.12 0.10 0.03 0.02 0.02 0.02 0.03 0.06 0.09 0.10 0.09 0.07 0.06 0.06 0.05 0.03 0.03 0.03 0.03 0.02 0.02 0.02 0.02 0.04 0.07 0.06 0.07 0.12 0.22 0.28 0.31 0.34 0.35 0.30 0.23 0.20 0.21 0.24 0.29
0.02 0.01 0.01 0.01 0.02 0.08 0.04 0.02 0.02 0.04 0.04 0.03 0.03 0.04 0.04 0.04 0.04 0.06 0.03 0.02 0.01 0.01 0.01 0.01 0.01 0.01 0.02 0.02 0.05 0.10 0.11 0.14 0.18 0.27 0.35 0.35 0.36 0.35 0.28 0.25 0.26 0.27 0.30 0.32
0.01 0.01 0.01 0.01 0.02 0.07 0.05 0.04 0.06 0.04 0.11 0.08 0.05 0.04 0.03 0.02 0.08 0.10 0.04 0.01 0.01 0.01 0.01 0.02 0.02 0.02 0.04 0.06 0.09 0.15 0.20 0.25 0.31 0.39 0.45 0.43 0.45 0.46 0.41 0.40 0.39 0.36 0.37 0.33
0.01 0.01 0.01 0.01 0.03 0.04 0.02 0.04 0.04 0.08 0.15 0.04 0.02 0.01 0.01 0.02 0.05 0.05 0.02 0.01 0.01 0.01 0.02 0.03 0.04 0.04 0.06 0.09 0.12 0.21 0.26 0.29 0.32 0.35 0.42 0.48 0.52 0.57 0.60 0.62 0.57 0.51 0.46 0.43
0.01 0.01 0.02 0.03 0.07 0.09 0.02 0.01 0.01 0.04 0.02 0.01 0.01 0.01 0.02 0.02 0.01 0.01 0.01 0.01 0.01 0.02 0.03 0.04 0.06 0.05 0.07 0.10 0.16 0.22 0.25 0.28 0.31 0.36 0.43 0.50 0.54 0.54 0.63 0.81 0.79 0.76 0.70 0.58
0.00 0.01 0.02 0.02 0.04 0.02 0.00 0.00 0.01 0.01 0.01 0.02 0.02 0.01 0.02 0.02 0.02 0.02 0.02 0.02 0.02 0.02 0.03 0.05 0.09 0.10 0.13 0.16 0.26 0.37 0.34 0.34 0.39 0.44 0.50 0.54 0.54 0.59 0.70 0.79 0.83 0.83 0.77 0.66
0.00 0.01 0.01 0.03 0.01 0.00 0.01 0.01 0.01 0.01 0.01 0.01 0.01 0.01 0.02 0.03 0.03 0.03 0.03 0.03 0.04 0.04 0.06 0.09 0.14 0.20 0.28 0.32 0.39 0.47 0.43 0.44 0.48 0.50 0.53 0.56 0.58 0.60 0.66 0.78 0.79 0.76 0.71 0.69
0.00 0.00 0.01 0.03 0.02 0.01 0.01 0.02 0.01 0.00 0.01 0.01 0.01 0.02 0.02 0.03 0.04 0.04 0.04 0.05 0.05 0.06 0.07 0.13 0.21 0.30 0.37 0.45 0.51 0.54 0.55 0.61 0.63 0.59 0.56 0.59 0.61 0.64 0.70 0.76 0.81 0.79 0.72 0.66
0.01 0.02 0.03 0.04 0.04 0.05 0.05 0.03 0.01 0.01 0.01 0.01 0.02 0.02 0.03 0.04 0.05 0.04 0.05 0.05 0.05 0.07 0.08 0.13 0.20 0.30 0.38 0.47 0.54 0.57 0.67 0.78 0.84 0.83 0.73 0.71 0.73 0.75 0.79 0.79 0.70 0.60 0.57 0.47

GEFSCGP_prec_meanprecacc_072.txt.gz
Total_Precipitation_Accumulation
0.00 0.00 0.00 0.00 0.00 0.00 0.00 0.00 0.00 0.00 0.00 0.00 0.00 0.01 0.02 0.05 0.09 0.14 0.27 0.53 0.81 0.96 1.26 1.51 1.56 1.67 1.73 2.00 2.22 2.41 2.84 2.97 2.90 2.70 2.39 2.20 2.08 2.00 1.86 1.72 1.62 1.59 1.55 1.58
0.00 0.00 0.00 0.00 0.00 0.00 0.00 0.00 0.00 0.00 0.00 0.00 0.00 0.01 0.02 0.04 0.07 0.11 0.22 0.40 0.64 0.96 1.21 1.40 1.46 1.44 1.68 2.14 2.41 2.44 2.38 2.52 2.58 2.50 2.40 2.35 2.37 2.12 1.88 1.76 1.60 1.50 1.53 1.56
0.00 0.00 0.00 0.00 0.00 0.00 0.00 0.00 0.00 0.00 0.00 0.00 0.00 0.02 0.03 0.06 0.11 0.23 0.39 0.56 0.71 1.01 1.26 1.35 1.38 1.34 1.42 1.57 1.75 1.86 1.89 1.81 1.79 1.85 1.99 2.05 2.09 1.89 1.72 1.63 1.59 1.50 1.46 1.38
0.00 0.00 0.00 0.00 0.00 0.00 0.00 0.00 0.00 0.00 0.00 0.00 0.01 0.03 0.04 0.06 0.19 0.40 0.54 0.70 0.92 1.15 1.12 1.16 1.22 1.18 1.22 1.32 1.41 1.43 1.45 1.44 1.46 1.57 1.67 1.67 1.67 1.57 1.54 1.55 1.46 1.41 1.36 1.30
0.01 0.01 0.00 0.00 0.00 0.00 0.00 0.00 0.00 0.00 0.00 0.01 0.02 0.03 0.05 0.09 0.22 0.45 0.61 0.67 0.86 0.95 0.87 0.84 0.89 0.91 0.94 0.97 1.08 1.17 1.25 1.25 1.25 1.28 1.33 1.37 1.35 1.36 1.39 1.32 1.26 1.19 1.16 1.21
0.01 0.02 0.01 0.01 0.01 0.01 0.01 0.00 0.00 0.01 0.02 0.04 0.07 0.08 0.12 0.22 0.32 0.41 0.58 0.66 0.78 0.80 0.78 0.84 0.82 0.78 0.81 0.88 0.98 1.05 1.10 1.12 1.12 1.13 1.15 1.16 1.16 1.17 1.17 1.13 1.13 1.10 1.05 0.99
0.04 0.04 0.03 0.02 0.01 0.01 0.01 0.02 0.07 0.09 0.13 0.16 0.16 0.14 0.24 0.38 0.42 0.47 0.58 0.73 0.80 0.74 0.69 0.68 0.68 0.70 0.75 0.77 0.77 0.79 0.81 0.86 0.82 0.81 0.86 0.87 0.88 0.87 0.89 0.89 0.86 0.81 0.73 0.71
0.05 0.08 0.07 0.04 0.03 0.03 0.04 0.07 0.23 0.22 0.10 0.10 0.14 0.20 0.42 0.57 0.57 0.57 0.64 0.72 0.67 0.58 0.54 0.53 0.53 0.53 0.56 0.54 0.52 0.55 0.59 0.66 0.69 0.68 0.68 0.60 0.56 0.55 0.55 0.63 0.64 0.60 0.56 0.55
0.03 0.03 0.03 0.03 0.03 0.05 0.09 0.12 0.14 0.28 0.21 0.16 0.14 0.26 0.45 0.62 0.67 0.73 0.83 0.83 0.71 0.57 0.45 0.41 0.40 0.38 0.36 0.36 0.39 0.46 0.51 0.55 0.60 0.59 0.55 0.50 0.45 0.42 0.42 0.46 0.52 0.53 0.58 0.53
0.02 0.01 0.01 0.02 0.02 0.05 0.08 0.09 0.11 0.24 0.28 0.26 0.15 0.32 0.55 0.83 0.88 0.82 0.88 0.77 0.57 0.43 0.33 0.29 0.25 0.24 0.24 0.25 0.30 0.38 0.42 0.41 0.43 0.44 0.43 0.37 0.36 0.36 0.38 0.40 0.41 0.44 0.46 0.49
0.01 0.00 0.00 0.02 0.03 0.05 0.09 0.13 0.20 0.29 0.29 0.35 0.33 0.40 0.50 0.63 0.76 0.83 0.78 0.60 0.40 0.28 0.21 0.19 0.19 0.20 0.21 0.21 0.25 0.32 0.39 0.42 0.43 0.42 0.41 0.35 0.30 0.29 0.30 0.31 0.32 0.38 0.39 0.42
0.00 0.00 0.00 0.01 0.04 0.06 0.07 0.11 0.20 0.32 0.29 0.30 0.36 0.39 0.27 0.30 0.39 0.44 0.42 0.34 0.27 0.21 0.19 0.21 0.23 0.23 0.21 0.23 0.27 0.34 0.39 0.44 0.48 0.49 0.50 0.46 0.40 0.36 0.34 0.31 0.30 0.30 0.33 0.36
0.00 0.00 0.01 0.03 0.08 0.10 0.09 0.09 0.11 0.15 0.17 0.17 0.25 0.29 0.21 0.24 0.32 0.41 0.49 0.49 0.41 0.32 0.23 0.19 0.21 0.23 0.24 0.28 0.33 0.43 0.48 0.50 0.52 0.58 0.65 0.64 0.51 0.46 0.45 0.39 0.32 0.30 0.29 0.29
0.00 0.00 0.01 0.03 0.04 0.05 0.08 0.09 0.07 0.12 0.20 0.18 0.16 0.20 0.22 0.25 0.32 0.40 0.44 0.40 0.32 0.25 0.20 0.17 0.20 0.23 0.26 0.29 0.29 0.32 0.36 0.38 0.44 0.46 0.55 0.65 0.61 0.49 0.37 0.29 0.30 0.31 0.30 0.30
0.00 0.00 0.00 0.01 0.02 0.04 0.08 0.08 0.06 0.08 0.14 0.25 0.19 0.16 0.19 0.20 0.20 0.24 0.25 0.21 0.17 0.16 0.14 0.15 0.18 0.21 0.25 0.25 0.22 0.19 0.17 0.17 0.23 0.27 0.34 0.44 0.39 0.32 0.29 0.26 0.20 0.17 0.21 0.26
0.00 0.00 0.00 0.01 0.02 0.03 0.06 0.09 0.07 0.05 0.05 0.09 0.12 0.17 0.18 0.18 0.19 0.20 0.19 0.17 0.16 0.16 0.13 0.12 0.14 0.17 0.19 0.16 0.11 0.08 0.08 0.11 0.18 0.24 0.28 0.35 0.34 0.27 0.21 0.17 0.12 0.11 0.16 0.22
0.01 0.01 0.00 0.00 0.01 0.03 0.09 0.09 0.05 0.03 0.02 0.04 0.13 0.21 0.19 0.20 0.19 0.18 0.16 0.14 0.12 0.10 0.08 0.07 0.06 0.06 0.05 0.05 0.04 0.05 0.05 0.06 0.14 0.24 0.31 0.36 0.40 0.40 0.28 0.15 0.12 0.14 0.19 0.25
0.02 0.01 0.00 0.00 0.02 0.12 0.10 0.03 0.02 0.02 0.02 0.03 0.06 0.09 0.10 0.09 0.07 0.06 0.06 0.05 0.03 0.03 0.03 0.03 0.02 0.02 0.02 0.02 0.04 0.07 0.06 0.07 0.12 0.22 0.29 0.32 0.36 0.37 0.33 0.26 0.23 0.25 0.29 0.35
0.03 0.01 0.01 0.01 0.02 0.08 0.04 0.02 0.02 0.04 0.04 0.03 0.03 0.04 0.04 0.04 0.04 0.06 0.03 0.02 0.01 0.01 0.01 0.01 0.02 0.01 0.02 0.02 0.05 0.11 0.12 0.14 0.19 0.28 0.37 0.37 0.39 0.39 0.33 0.30 0.32 0.34 0.38 0.39
0.01 0.01 0.01 0.01 0.02 0.07 0.05 0.04 0.06 0.04 0.11 0.08 0.05 0.04 0.03 0.02 0.08 0.10 0.04 0.01 0.01 0.01 0.01 0.02 0.02 0.02 0.04 0.06 0.10 0.15 0.21 0.26 0.33 0.42 0.48 0.46 0.50 0.51 0.46 0.46 0.46 0.44 0.46 0.41
0.01 0.01 0.01 0.01 0.03 0.04 0.02 0.04 0.04 0.08 0.15 0.04 0.02 0.01 0.01 0.02 0.05 0.05 0.02 0.01 0.01 0.01 0.02 0.03 0.04 0.04 0.06 0.09 0.13 0.22 0.27 0.31 0.35 0.38 0.45 0.52 0.57 0.63 0.67 0.69 0.65 0.59 0.55 0.51
0.01 0.01 0.02 0.03 0.07 0.09 0.02 0.01 0.01 0.04 0.02 0.01 0.01 0.01 0.02 0.02 0.01 0.01 0.01 0.01 0.01 0.02 0.03 0.04 0.06 0.05 0.07 0.10 0.16 0.24 0.27 0.30 0.34 0.39 0.47 0.54 0.58 0.59 0.68 0.90 0.88 0.86 0.80 0.69
0.00 0.01 0.02 0.02 0.04 0.02 0.00 0.00 0.01 0.01 0.01 0.02 0.02 0.01 0.02 0.02 0.02 0.02 0.02 0.02 0.02 0.02 0.03 0.05 0.09 0.11 0.13 0.17 0.28 0.39 0.36 0.37 0.42 0.48 0.54 0.58 0.59 0.64 0.77 0.88 0.92 0.93 0.87 0.76
0.00 0.01 0.01 0.03 0.01 0.00 0.01 0.01 0.01 0.01 0.01 0.01 0.01 0.01 0.02 0.03 0.03 0.03 0.03 0.03 0.04 0.04 0.06 0.09 0.14 0.20 0.28 0.33 0.40 0.49 0.46 0.47 0.52 0.54 0.57 0.60 0.64 0.65 0.71 0.86 0.87 0.85 0.81 0.79
0.00 0.00 0.01 0.03 0.02 0.01 0.01 0.02 0.01 0.00 0.01 0.01 0.01 0.02 0.02 0.03 0.04 0.04 0.04 0.05 0.05 0.06 0.07 0.13 0.21 0.30 0.38 0.46 0.52 0.56 0.59 0.65 0.68 0.63 0.60 0.63 0.67 0.70 0.76 0.82 0.88 0.86 0.80 0.72
0.01 0.02 0.03 0.04 0.04 0.05 0.05 0.03 0.01 0.01 0.01 0.01 0.02 0.02 0.03 0.04 0.05 0.04 0.05 0.05 0.05 0.07 0.08 0.13 0.20 0.30 0.39 0.48 0.55 0.60 0.70 0.82 0.89 0.88 0.77 0.76 0.78 0.80 0.85 0.85 0.76 0.65 0.60 0.49

GEFSCGP_prec_meanprecacc_078.txt.gz
Total_Precipitation_Accumulation
0.00 0.00 0.01 0.01 0.00 0.00 0.02 0.02 0.03 0.03 0.01 0.01 0.02 0.02 0.02 0.06 0.12 0.15 0.27 0.54 0.82 0.97 1.27 1.52 1.57 1.68 1.75 2.01 2.24 2.44 2.88 3.03 2.95 2.76 2.46 2.28 2.16 2.10 2.01 1.89 1.77 1.75 1.76 1.84
0.01 0.02 0.01 0.00 0.00 0.00 0.01 0.01 0.01 0.03 0.02 0.01 0.01 0.02 0.04 0.08 0.12 0.13 0.22 0.40 0.65 0.97 1.22 1.41 1.46 1.44 1.69 2.15 2.44 2.47 2.42 2.55 2.62 2.54 2.44 2.40 2.43 2.19 1.98 1.87 1.72 1.62 1.67 1.77
0.02 0.02 0.01 0.00 0.00 0.00 0.01 0.01 0.01 0.04 0.04 0.02 0.02 0.11 0.15 0.19 0.19 0.28 0.40 0.56 0.71 1.02 1.26 1.36 1.38 1.35 1.42 1.57 1.76 1.87 1.90 1.82 1.80 1.87 2.02 2.09 2.14 1.96 1.79 1.71 1.66 1.56 1.54 1.50
0.02 0.01 0.01 0.01 0.02 0.02 0.03 0.02 0.01 0.01 0.01 0.03 0.06 0.20 0.34 0.30 0.38 0.49 0.56 0.71 0.92 1.16 1.12 1.16 1.23 1.18 1.22 1.32 1.41 1.43 1.46 1.45 1.48 1.59 1.69 1.70 1.69 1.60 1.58 1.59 1.50 1.45 1.40 1.36
0.03 0.02 0.01 0.02 0.02 0.02 0.02 0.01 0.00 0.00 0.01 0.03 0.10 0.21 0.38 0.53 0.59 0.58 0.66 0.67 0.86 0.95 0.87 0.84 0.90 0.91 0.94 0.97 1.08 1.17 1.25 1.25 1.27 1.29 1.34 1.38 1.37 1.38 1.40 1.34 1.28 1.22 1.19 1.25
0.02 0.02 0.02 0.01 0.01 0.01 0.01 0.01 0.02 0.04 0.06 0.15 0.24 0.28 0.45 0.66 0.71 0.58 0.62 0.67 0.78 0.80 0.78 0.84 0.82 0.78 0.81 0.88 0.98 1.05 1.10 1.12 1.13 1.14 1.16 1.17 1.18 1.19 1.18 1.15 1.15 1.12 1.08 1.02
0.07 0.07 0.04 0.02 0.02 0.02 0.02 0.03 0.17 0.33 0.43 0.48 0.34 0.30 0.49 0.60 0.58 0.56 0.61 0.73 0.80 0.74 0.69 0.68 0.68 0.70 0.75 0.77 0.77 0.79 0.82 0.87 0.84 0.83 0.88 0.89 0.90 0.89 0.91 0.91 0.88 0.82 0.74 0.73
0.12 0.15 0.08 0.04 0.04 0.04 0.04 0.07 0.27 0.34 0.24 0.27 0.28 0.41 0.67 0.70 0.64 0.59 0.65 0.73 0.67 0.58 0.54 0.53 0.53 0.53 0.56 0.54 0.52 0.55 0.60 0.67 0.71 0.70 0.70 0.62 0.58 0.57 0.56 0.65 0.65 0.61 0.57 0.55
0.06 0.05 0.04 0.03 0.03 0.05 0.09 0.12 0.15 0.28 0.21 0.21 0.27 0.50 0.70 0.70 0.69 0.74 0.83 0.83 0.72 0.57 0.45 0.41 0.40 0.38 0.36 0.36 0.39 0.46 0.52 0.56 0.61 0.60 0.56 0.51 0.46 0.43 0.43 0.47 0.53 0.53 0.58 0.53
0.03 0.01 0.01 0.02 0.02 0.05 0.08 0.09 0.11 0.24 0.28 0.28 0.24 0.54 0.78 0.93 0.93 0.85 0.89 0.77 0.57 0.43 0.33 0.29 0.25 0.24 0.24 0.25 0.30 0.38 0.42 0.42 0.43 0.44 0.43 0.38 0.36 0.37 0.39 0.40 0.42 0.44 0.46 0.49
0.01 0.00 0.01 0.02 0.03 0.06 0.09 0.13 0.20 0.29 0.29 0.36 0.37 0.49 0.55 0.66 0.77 0.84 0.78 0.60 0.40 0.28 0.21 0.19 0.19 0.20 0.21 0.21 0.25 0.32 0.39 0.42 0.43 0.42 0.41 0.35 0.30 0.29 0.30 0.31 0.33 0.38 0.41 0.43
0.00 0.00 0.01 0.03 0.06 0.06 0.08 0.11 0.20 0.32 0.29 0.31 0.37 0.42 0.28 0.30 0.40 0.44 0.42 0.34 0.27 0.21 0.19 0.21 0.23 0.23 0.21 0.23 0.27 0.34 0.39 0.44 0.48 0.49 0.50 0.46 0.40 0.36 0.34 0.32 0.30 0.31 0.34 0.38
0.00 0.00 0.02 0.14 0.23 0.13 0.10 0.09 0.11 0.15 0.17 0.17 0.26 0.30 0.21 0.24 0.32 0.41 0.49 0.49 0.41 0.32 0.23 0.19 0.21 0.23 0.24 0.28 0.33 0.43 0.48 0.50 0.52 0.58 0.65 0.64 0.51 0.46 0.46 0.40 0.34 0.32 0.31 0.31
0.00 0.00 0.02 0.07 0.09 0.07 0.08 0.09 0.07 0.12 0.20 0.18 0.16 0.21 0.22 0.25 0.32 0.40 0.44 0.40 0.32 0.25 0.20 0.17 0.20 0.23 0.26 0.29 0.29 0.32 0.36 0.38 0.44 0.46 0.55 0.66 0.61 0.50 0.37 0.30 0.31 0.33 0.33 0.34
0.00 0.00 0.00 0.01 0.02 0.04 0.08 0.08 0.06 0.08 0.14 0.25 0.19 0.16 0.19 0.20 0.20 0.24 0.25 0.21 0.17 0.16 0.14 0.15 0.18 0.21 0.25 0.25 0.22 0.19 0.17 0.17 0.23 0.28 0.35 0.44 0.39 0.33 0.30 0.27 0.21 0.19 0.24 0.29
0.00 0.00 0.00 0.01 0.02 0.03 0.06 0.09 0.07 0.05 0.05 0.09 0.12 0.17 0.18 0.18 0.19 0.20 0.19 0.17 0.16 0.16 0.13 0.12 0.14 0.17 0.19 0.16 0.11 0.08 0.08 0.11 0.18 0.24 0.29 0.36 0.35 0.28 0.23 0.19 0.14 0.14 0.20 0.27
0.01 0.01 0.00 0.01 0.02 0.03 0.09 0.09 0.05 0.03 0.02 0.04 0.13 0.21 0.19 0.20 0.19 0.18 0.16 0.14 0.12 0.10 0.08 0.07 0.06 0.06 0.05 0.05 0.04 0.05 0.06 0.07 0.15 0.24 0.32 0.37 0.42 0.41 0.31 0.18 0.15 0.18 0.24 0.32
0.02 0.01 0.00 0.00 0.02 0.13 0.11 0.03 0.02 0.02 0.02 0.03 0.06 0.09 0.10 0.09 0.07 0.06 0.06 0.05 0.03 0.03 0.03 0.03 0.02 0.02 0.02 0.02 0.04 0.07 0.06 0.08 0.13 0.23 0.31 0.33 0.38 0.40 0.36 0.30 0.28 0.31 0.37 0.44
0.03 0.01 0.01 0.01 0.03 0.09 0.04 0.02 0.02 0.04 0.04 0.03 0.03 0.04 0.04 0.04 0.04 0.06 0.03 0.02 0.01 0.01 0.01 0.01 0.02 0.01 0.02 0.02 0.06 0.11 0.12 0.15 0.20 0.29 0.39 0.40 0.42 0.42 0.36 0.34 0.37 0.42 0.47 0.49
0.01 0.01 0.01 0.01 0.02 0.07 0.05 0.04 0.06 0.04 0.11 0.08 0.05 0.04 0.03 0.02 0.08 0.10 0.04 0.01 0.01 0.01 0.01 0.02 0.02 0.03 0.04 0.07 0.11 0.16 0.22 0.27 0.34 0.44 0.50 0.49 0.53 0.55 0.51 0.51 0.53 0.52 0.56 0.51
0.01 0.01 0.01 0.01 0.03 0.04 0.03 0.04 0.04 0.08 0.16 0.04 0.02 0.01 0.01 0.02 0.05 0.05 0.02 0.01 0.01 0.01 0.02 0.03 0.04 0.04 0.07 0.10 0.14 0.23 0.29 0.33 0.37 0.40 0.48 0.54 0.61 0.68 0.72 0.76 0.73 0.69 0.64 0.62
0.01 0.01 0.02 0.03 0.08 0.10 0.02 0.01 0.02 0.04 0.02 0.01 0.01 0.01 0.02 0.02 0.01 0.01 0.01 0.01 0.01 0.02 0.03 0.04 0.06 0.06 0.08 0.11 0.18 0.25 0.29 0.32 0.35 0.41 0.50 0.57 0.63 0.63 0.72 0.97 0.97 0.97 0.92 0.80
0.00 0.01 0.02 0.03 0.04 0.02 0.00 0.01 0.01 0.01 0.01 0.02 0.02 0.01 0.02 0.02 0.02 0.02 0.02 0.02 0.02 0.02 0.03 0.05 0.09 0.11 0.14 0.17 0.29 0.41 0.38 0.39 0.43 0.50 0.57 0.61 0.62 0.70 0.84 0.97 1.01 1.05 1.01 0.89
0.00 0.01 0.01 0.03 0.01 0.00 0.01 0.01 0.01 0.01 0.01 0.01 0.01 0.01 0.02 0.03 0.03 0.03 0.03 0.03 0.04 0.04 0.06 0.09 0.14 0.21 0.29 0.34 0.41 0.51 0.48 0.49 0.54 0.57 0.60 0.63 0.68 0.71 0.80 0.95 0.97 0.97 0.94 0.91
0.00 0.00 0.01 0.03 0.02 0.01 0.01 0.02 0.01 0.00 0.01 0.01 0.01 0.02 0.02 0.03 0.04 0.04 0.04 0.05 0.05 0.06 0.07 0.13 0.22 0.31 0.39 0.47 0.53 0.57 0.61 0.67 0.71 0.66 0.63 0.67 0.73 0.78 0.84 0.91 0.96 0.92 0.87 0.78
0.01 0.02 0.03 0.04 0.04 0.05 0.05 0.03 0.01 0.01 0.01 0.01 0.02 0.02 0.03 0.04 0.05 0.04 0.05 0.05 0.05 0.07 0.08 0.14 0.21 0.31 0.40 0.48 0.56 0.61 0.71 0.84 0.92 0.91 0.81 0.81 0.84 0.87 0.93 0.93 0.84 0.70 0.62 0.49

GEFSCGP_prec_meanprecacc_084.txt.gz
Total_Precipitation_Accumulation
0.00 0.00 0.01 0.01 0.00 0.01 0.03 0.03 0.04 0.05 0.03 0.05 0.13 0.22 0.23 0.24 0.35 0.43 0.59 0.76 0.95 1.04 1.31 1.54 1.60 1.71 1.78 2.06 2.30 2.52 2.96 3.12 3.03 2.81 2.49 2.31 2.19 2.14 2.06 1.93 1.80 1.78 1.79 1.88
0.01 0.02 0.01 0.00 0.01 0.01 0.03 0.04 0.03 0.06 0.05 0.05 0.11 0.24 0.29 0.38 0.51 0.52 0.55 0.63 0.77 1.06 1.26 1.43 1.49 1.45 1.70 2.17 2.47 2.50 2.46 2.59 2.65 2.57 2.47 2.43 2.47 2.24 2.03 1.92 1.75 1.64 1.69 1.80
0.02 0.03 0.01 0.01 0.01 0.01 0.02 0.03 0.04 0.08 0.07 0.06 0.10 0.29 0.41 0.50 0.56 0.64 0.75 0.78 0.85 1.09 1.30 1.40 1.41 1.36 1.42 1.58 1.77 1.89 1.92 1.84 1.83 1.90 2.05 2.13 2.18 1.99 1.82 1.73 1.67 1.58 1.55 1.52
0.02 0.02 0.02 0.03 0.03 0.03 0.04 0.03 0.02 0.02 0.04 0.09 0.17 0.44 0.66 0.60 0.67 0.83 0.84 0.84 1.00 1.21 1.16 1.17 1.23 1.19 1.22 1.32 1.42 1.44 1.46 1.46 1.50 1.60 1.71 1.72 1.71 1.62 1.59 1.60 1.52 1.46 1.41 1.37
0.04 0.03 0.02 0.04 0.04 0.03 0.03 0.02 0.02 0.02 0.04 0.07 0.17 0.39 0.70 0.93 0.96 0.88 0.84 0.78 0.92 0.98 0.89 0.85 0.90 0.91 0.94 0.97 1.08 1.17 1.26 1.26 1.27 1.30 1.35 1.39 1.38 1.39 1.41 1.35 1.28 1.22 1.20 1.26
0.03 0.04 0.03 0.03 0.02 0.03 0.02 0.03 0.05 0.09 0.10 0.21 0.29 0.40 0.72 1.03 1.17 0.93 0.84 0.77 0.83 0.83 0.80 0.85 0.83 0.79 0.81 0.89 0.98 1.05 1.11 1.13 1.14 1.15 1.17 1.18 1.18 1.19 1.19 1.15 1.16 1.13 1.08 1.02
0.09 0.09 0.06 0.04 0.03 0.03 0.03 0.05 0.21 0.38 0.48 0.57 0.43 0.52 0.87 0.92 0.91 0.84 0.80 0.83 0.83 0.76 0.71 0.69 0.69 0.71 0.76 0.77 0.77 0.79 0.82 0.88 0.84 0.83 0.88 0.90 0.90 0.90 0.91 0.91 0.88 0.83 0.75 0.73
0.14 0.18 0.10 0.06 0.05 0.05 0.06 0.09 0.32 0.41 0.33 0.43 0.44 0.71 1.09 0.89 0.83 0.75 0.76 0.85 0.79 0.63 0.56 0.55 0.53 0.54 0.57 0.54 0.52 0.55 0.60 0.67 0.71 0.70 0.70 0.62 0.58 0.57 0.57 0.65 0.65 0.61 0.57 0.55
0.07 0.07 0.05 0.05 0.05 0.07 0.10 0.14 0.18 0.32 0.27 0.32 0.43 0.70 0.92 0.79 0.77 0.80 0.89 0.92 0.83 0.62 0.48 0.43 0.40 0.39 0.37 0.36 0.40 0.46 0.52 0.56 0.61 0.60 0.56 0.51 0.46 0.43 0.43 0.47 0.53 0.53 0.58 0.53
0.03 0.02 0.03 0.03 0.04 0.07 0.10 0.10 0.12 0.26 0.30 0.33 0.34 0.67 0.88 0.98 0.96 0.88 0.91 0.80 0.58 0.44 0.34 0.29 0.25 0.24 0.24 0.25 0.30 0.38 0.42 0.42 0.43 0.44 0.43 0.38 0.36 0.37 0.39 0.40 0.42 0.44 0.47 0.49
0.01 0.01 0.03 0.05 0.06 0.07 0.11 0.14 0.21 0.29 0.29 0.37 0.42 0.56 0.58 0.67 0.79 0.85 0.79 0.61 0.40 0.29 0.21 0.20 0.20 0.20 0.21 0.21 0.25 0.32 0.39 0.42 0.43 0.42 0.41 0.35 0.30 0.29 0.30 0.31 0.33 0.38 0.41 0.44
0.01 0.01 0.02 0.06 0.08 0.07 0.08 0.12 0.20 0.32 0.29 0.31 0.38 0.45 0.29 0.31 0.42 0.45 0.42 0.34 0.27 0.21 0.19 0.21 0.23 0.23 0.21 0.23 0.27 0.34 0.39 0.44 0.48 0.49 0.50 0.46 0.40 0.36 0.34 0.32 0.30 0.31 0.34 0.38
0.01 0.01 0.03 0.16 0.26 0.15 0.10 0.09 0.11 0.15 0.17 0.17 0.26 0.30 0.21 0.25 0.32 0.41 0.49 0.49 0.41 0.32 0.23 0.19 0.21 0.23 0.24 0.28 0.33 0.43 0.48 0.50 0.52 0.58 0.65 0.64 0.51 0.46 0.46 0.40 0.34 0.32 0.31 0.31
0.00 0.01 0.03 0.10 0.10 0.08 0.09 0.09 0.07 0.12 0.20 0.18 0.16 0.21 0.22 0.25 0.32 0.40 0.44 0.40 0.32 0.25 0.20 0.17 0.20 0.23 0.26 0.29 0.29 0.32 0.36 0.38 0.44 0.46 0.55 0.66 0.61 0.50 0.38 0.30 0.31 0.33 0.33 0.34
0.01 0.00 0.01 0.02 0.03 0.05 0.09 0.08 0.07 0.08 0.14 0.25 0.19 0.16 0.19 0.20 0.20 0.24 0.25 0.21 0.17 0.16 0.14 0.15 0.18 0.21 0.25 0.25 0.22 0.19 0.17 0.17 0.23 0.28 0.35 0.44 0.39 0.33 0.30 0.27 0.21 0.19 0.24 0.29
0.00 0.00 0.00 0.01 0.03 0.05 0.08 0.10 0.07 0.05 0.05 0.09 0.12 0.17 0.18 0.18 0.19 0.20 0.19 0.17 0.16 0.16 0.13 0.12 0.14 0.17 0.19 0.16 0.11 0.08 0.08 0.11 0.18 0.24 0.29 0.36 0.35 0.28 0.23 0.19 0.14 0.14 0.20 0.27
0.01 0.01 0.00 0.01 0.03 0.04 0.10 0.10 0.06 0.03 0.03 0.04 0.13 0.21 0.19 0.20 0.19 0.18 0.16 0.14 0.12 0.10 0.08 0.07 0.06 0.06 0.05 0.05 0.04 0.05 0.06 0.07 0.15 0.24 0.32 0.37 0.42 0.41 0.31 0.18 0.15 0.18 0.24 0.32
0.03 0.01 0.00 0.00 0.03 0.14 0.12 0.05 0.03 0.03 0.02 0.03 0.06 0.09 0.10 0.09 0.07 0.06 0.06 0.05 0.03 0.03 0.03 0.03 0.02 0.02 0.02 0.02 0.04 0.07 0.06 0.08 0.13 0.23 0.31 0.34 0.38 0.40 0.36 0.30 0.28 0.32 0.38 0.44
0.03 0.01 0.01 0.01 0.03 0.10 0.06 0.04 0.05 0.06 0.04 0.03 0.03 0.04 0.04 0.04 0.04 0.06 0.03 0.02 0.01 0.01 0.01 0.01 0.02 0.01 0.02 0.02 0.06 0.11 0.12 0.15 0.20 0.30 0.39 0.40 0.42 0.42 0.37 0.34 0.38 0.42 0.48 0.49
0.02 0.02 0.02 0.02 0.05 0.10 0.07 0.07 0.08 0.06 0.11 0.08 0.05 0.04 0.03 0.02 0.08 0.10 0.04 0.01 0.01 0.01 0.01 0.02 0.02 0.03 0.04 0.07 0.11 0.16 0.22 0.27 0.35 0.44 0.50 0.49 0.53 0.56 0.51 0.52 0.53 0.53 0.56 0.52
0.01 0.01 0.03 0.04 0.07 0.09 0.07 0.06 0.05 0.09 0.16 0.04 0.02 0.01 0.01 0.02 0.05 0.05 0.02 0.01 0.01 0.01 0.02 0.03 0.04 0.04 0.07 0.10 0.14 0.24 0.29 0.33 0.37 0.40 0.48 0.55 0.61 0.68 0.72 0.77 0.73 0.69 0.65 0.62
0.01 0.03 0.04 0.06 0.12 0.13 0.05 0.02 0.03 0.05 0.02 0.01 0.01 0.01 0.02 0.02 0.01 0.01 0.01 0.01 0.01 0.02 0.03 0.04 0.06 0.06 0.08 0.11 0.18 0.25 0.29 0.32 0.36 0.41 0.50 0.57 0.63 0.63 0.73 0.97 0.97 0.98 0.93 0.81
0.01 0.02 0.03 0.03 0.05 0.02 0.01 0.01 0.01 0.01 0.01 0.02 0.02 0.01 0.02 0.02 0.02 0.02 0.02 0.02 0.02 0.02 0.03 0.05 0.09 0.11 0.14 0.18 0.29 0.41 0.38 0.39 0.44 0.50 0.57 0.61 0.62 0.70 0.84 0.98 1.02 1.06 1.02 0.90
0.00 0.01 0.01 0.03 0.01 0.01 0.01 0.01 0.01 0.01 0.01 0.01 0.01 0.01 0.02 0.03 0.03 0.03 0.03 0.03 0.04 0.04 0.06 0.09 0.14 0.21 0.29 0.34 0.41 0.51 0.48 0.49 0.54 0.57 0.60 0.63 0.68 0.72 0.80 0.96 0.98 0.98 0.95 0.93
0.00 0.00 0.01 0.03 0.02 0.01 0.02 0.02 0.01 0.00 0.01 0.01 0.01 0.02 0.02 0.03 0.04 0.04 0.04 0.05 0.05 0.06 0.07 0.13 0.22 0.31 0.39 0.47 0.53 0.57 0.61 0.67 0.71 0.66 0.64 0.68 0.73 0.78 0.85 0.92 0.97 0.93 0.88 0.79
0.01 0.02 0.03 0.04 0.04 0.05 0.05 0.03 0.01 0.01 0.01 0.01 0.02 0.02 0.03 0.04 0.05 0.04 0.05 0.05 0.05 0.07 0.08 0.14 0.21 0.31 0.40 0.49 0.56 0.61 0.71 0.84 0.92 0.91 0.81 0.81 0.84 0.88 0.94 0.94 0.85 0.71 0.63 0.50

GEFSCGP_prec_meanprecacc_090.txt.gz
Total_Precipitation_Accumulation
0.00 0.00 0.01 0.01 0.00 0.01 0.03 0.03 0.04 0.06 0.04 0.06 0.14 0.25 0.29 0.32 0.45 0.53 0.71 0.89 1.08 1.14 1.38 1.60 1.67 1.79 1.85 2.11 2.36 2.58 3.04 3.22 3.13 2.91 2.58 2.41 2.30 2.25 2.16 2.02 1.86 1.83 1.84 1.93
0.01 0.02 0.01 0.00 0.01 0.01 0.04 0.04 0.04 0.07 0.05 0.06 0.13 0.27 0.35 0.45 0.63 0.71 0.73 0.80 0.90 1.15 1.32 1.49 1.54 1.50 1.73 2.20 2.49 2.54 2.50 2.63 2.69 2.61 2.52 2.50 2.56 2.33 2.12 2.01 1.83 1.70 1.73 1.82
0.02 0.03 0.01 0.01 0.01 0.01 0.02 0.03 0.04 0.08 0.08 0.07 0.13 0.32 0.46 0.56 0.66 0.80 0.87 0.89 0.97 1.19 1.36 1.46 1.45 1.38 1.44 1.59 1.79 1.90 1.94 1.86 1.85 1.92 2.08 2.16 2.22 2.03 1.87 1.80 1.74 1.62 1.57 1.53
0.02 0.02 0.02 0.03 0.03 0.03 0.04 0.04 0.03 0.03 0.06 0.11 0.19 0.47 0.70 0.65 0.73 0.91 0.92 0.91 1.07 1.30 1.22 1.20 1.25 1.20 1.23 1.32 1.42 1.44 1.47 1.47 1.51 1.61 1.72 1.73 1.72 1.63 1.60 1.62 1.53 1.48 1.43 1.39
0.04 0.03 0.03 0.04 0.04 0.04 0.04 0.03 0.03 0.04 0.05 0.08 0.17 0.40 0.73 0.96 0.99 0.91 0.88 0.83 0.98 1.04 0.93 0.87 0.91 0.92 0.95 0.98 1.09 1.18 1.26 1.26 1.27 1.30 1.35 1.39 1.38 1.39 1.41 1.35 1.29 1.23 1.20 1.26
0.04 0.04 0.03 0.03 0.03 0.03 0.03 0.04 0.07 0.10 0.11 0.21 0.29 0.40 0.72 1.03 1.18 0.94 0.86 0.80 0.86 0.85 0.82 0.86 0.84 0.79 0.82 0.89 0.99 1.06 1.11 1.13 1.14 1.15 1.17 1.18 1.18 1.19 1.19 1.15 1.16 1.13 1.08 1.02
0.09 0.09 0.07 0.04 0.04 0.03 0.04 0.06 0.22 0.39 0.48 0.57 0.43 0.53 0.87 0.92 0.92 0.85 0.81 0.84 0.85 0.77 0.72 0.69 0.70 0.71 0.77 0.79 0.80 0.81 0.83 0.88 0.84 0.83 0.88 0.90 0.90 0.90 0.91 0.91 0.88 0.83 0.75 0.73
0.14 0.18 0.10 0.07 0.06 0.06 0.07 0.10 0.33 0.42 0.33 0.43 0.45 0.71 1.09 0.89 0.83 0.75 0.77 0.86 0.80 0.64 0.56 0.55 0.54 0.54 0.58 0.58 0.55 0.56 0.60 0.68 0.71 0.70 0.70 0.62 0.58 0.57 0.57 0.65 0.65 0.61 0.57 0.55
0.08 0.08 0.06 0.05 0.05 0.07 0.11 0.14 0.18 0.33 0.28 0.33 0.43 0.71 0.92 0.79 0.77 0.80 0.89 0.92 0.83 0.62 0.48 0.43 0.40 0.39 0.37 0.36 0.40 0.46 0.52 0.56 0.61 0.60 0.56 0.51 0.46 0.43 0.43 0.47 0.53 0.53 0.58 0.53
0.04 0.03 0.03 0.04 0.04 0.07 0.10 0.11 0.13 0.26 0.31 0.33 0.34 0.67 0.88 0.98 0.96 0.88 0.91 0.80 0.58 0.44 0.34 0.29 0.25 0.24 0.24 0.25 0.30 0.38 0.42 0.42 0.43 0.44 0.43 0.38 0.36 0.37 0.39 0.40 0.42 0.44 0.47 0.49
0.01 0.01 0.03 0.05 0.06 0.07 0.11 0.14 0.21 0.30 0.30 0.37 0.42 0.56 0.58 0.67 0.79 0.85 0.79 0.61 0.40 0.29 0.21 0.20 0.20 0.20 0.21 0.21 0.25 0.32 0.39 0.42 0.43 0.42 0.41 0.35 0.30 0.29 0.30 0.31 0.33 0.38 0.41 0.44
0.01 0.01 0.02 0.06 0.08 0.08 0.08 0.12 0.21 0.32 0.29 0.31 0.38 0.45 0.29 0.31 0.42 0.45 0.42 0.34 0.27 0.21 0.19 0.21 0.23 0.23 0.21 0.23 0.27 0.34 0.39 0.44 0.48 0.49 0.50 0.46 0.40 0.36 0.34 0.32 0.30 0.31 0.34 0.38
0.01 0.01 0.03 0.16 0.26 0.15 0.10 0.09 0.12 0.15 0.17 0.17 0.26 0.30 0.21 0.25 0.32 0.41 0.49 0.49 0.41 0.32 0.23 0.19 0.21 0.23 0.24 0.28 0.33 0.43 0.48 0.50 0.52 0.58 0.65 0.64 0.51 0.46 0.46 0.40 0.34 0.32 0.31 0.31
0.01 0.01 0.03 0.10 0.11 0.08 0.09 0.10 0.08 0.13 0.21 0.18 0.16 0.21 0.22 0.25 0.32 0.40 0.44 0.40 0.32 0.25 0.20 0.17 0.20 0.23 0.26 0.29 0.29 0.32 0.36 0.38 0.44 0.46 0.55 0.66 0.61 0.50 0.38 0.30 0.31 0.33 0.33 0.34
0.01 0.01 0.01 0.02 0.03 0.06 0.09 0.09 0.08 0.08 0.14 0.25 0.19 0.17 0.19 0.20 0.20 0.24 0.25 0.21 0.17 0.16 0.14 0.15 0.18 0.21 0.25 0.25 0.22 0.19 0.17 0.17 0.23 0.28 0.35 0.44 0.39 0.33 0.30 0.27 0.21 0.19 0.24 0.29
0.01 0.01 0.00 0.01 0.03 0.06 0.08 0.11 0.08 0.06 0.06 0.09 0.12 0.17 0.18 0.18 0.19 0.20 0.19 0.17 0.16 0.16 0.13 0.12 0.14 0.17 0.19 0.16 0.11 0.08 0.08 0.11 0.18 0.24 0.29 0.36 0.35 0.28 0.23 0.19 0.14 0.14 0.20 0.27
0.01 0.01 0.00 0.01 0.03 0.04 0.11 0.11 0.07 0.04 0.03 0.04 0.13 0.21 0.19 0.20 0.19 0.18 0.16 0.14 0.12 0.10 0.08 0.07 0.06 0.06 0.05 0.05 0.04 0.05 0.06 0.07 0.15 0.24 0.32 0.37 0.42 0.41 0.31 0.18 0.15 0.18 0.24 0.32
0.03 0.02 0.00 0.01 0.03 0.14 0.12 0.05 0.04 0.04 0.03 0.03 0.06 0.09 0.10 0.09 0.07 0.06 0.06 0.05 0.03 0.03 0.03 0.03 0.02 0.02 0.02 0.02 0.04 0.07 0.06 0.08 0.13 0.23 0.31 0.34 0.38 0.40 0.36 0.30 0.29 0.32 0.38 0.44
0.05 0.03 0.02 0.02 0.03 0.10 0.06 0.05 0.05 0.06 0.04 0.03 0.04 0.04 0.04 0.04 0.04 0.06 0.03 0.02 0.01 0.01 0.01 0.01 0.02 0.01 0.02 0.02 0.06 0.11 0.12 0.15 0.20 0.30 0.39 0.40 0.42 0.42 0.37 0.34 0.38 0.42 0.48 0.49
0.04 0.04 0.06 0.04 0.06 0.10 0.07 0.07 0.08 0.06 0.11 0.08 0.05 0.04 0.03 0.02 0.08 0.10 0.04 0.01 0.01 0.01 0.01 0.02 0.02 0.03 0.04 0.07 0.11 0.16 0.22 0.27 0.35 0.44 0.50 0.49 0.53 0.56 0.51 0.52 0.53 0.53 0.56 0.52
0.03 0.04 0.05 0.07 0.09 0.10 0.07 0.07 0.06 0.09 0.16 0.04 0.02 0.01 0.01 0.02 0.05 0.05 0.02 0.01 0.01 0.01 0.02 0.03 0.04 0.04 0.07 0.10 0.14 0.24 0.29 0.33 0.37 0.40 0.48 0.55 0.61 0.68 0.72 0.77 0.73 0.69 0.65 0.63
0.03 0.04 0.06 0.09 0.14 0.14 0.05 0.02 0.03 0.05 0.02 0.01 0.01 0.01 0.02 0.02 0.01 0.01 0.01 0.01 0.01 0.02 0.03 0.04 0.06 0.06 0.08 0.11 0.18 0.25 0.29 0.32 0.36 0.41 0.50 0.57 0.63 0.63 0.73 0.97 0.97 0.98 0.93 0.81
0.02 0.03 0.04 0.04 0.05 0.02 0.01 0.01 0.01 0.01 0.02 0.02 0.02 0.01 0.02 0.02 0.02 0.02 0.02 0.02 0.02 0.02 0.03 0.05 0.09 0.11 0.14 0.18 0.29 0.41 0.38 0.39 0.44 0.50 0.57 0.61 0.62 0.70 0.84 0.98 1.02 1.06 1.02 0.90
0.01 0.01 0.02 0.03 0.01 0.01 0.01 0.01 0.01 0.01 0.01 0.01 0.01 0.01 0.02 0.03 0.03 0.03 0.03 0.03 0.04 0.04 0.06 0.09 0.14 0.21 0.29 0.34 0.41 0.51 0.48 0.49 0.54 0.57 0.60 0.63 0.68 0.72 0.80 0.96 0.98 0.98 0.95 0.93
0.01 0.00 0.01 0.03 0.02 0.01 0.02 0.02 0.01 0.01 0.01 0.01 0.01 0.02 0.02 0.03 0.04 0.04 0.04 0.05 0.05 0.06 0.07 0.13 0.22 0.31 0.39 0.47 0.53 0.57 0.61 0.67 0.71 0.66 0.64 0.68 0.73 0.78 0.85 0.92 0.97 0.93 0.88 0.79
0.01 0.02 0.03 0.04 0.04 0.05 0.05 0.03 0.01 0.01 0.01 0.01 0.02 0.02 0.03 0.04 0.05 0.05 0.05 0.05 0.05 0.07 0.08 0.14 0.21 0.31 0.40 0.49 0.56 0.61 0.71 0.84 0.92 0.91 0.81 0.81 0.84 0.88 0.94 0.94 0.85 0.71 0.64 0.51

GEFSCGP_prec_meanprecacc_096.txt.gz
Total_Precipitation_Accumulation
0.00 0.00 0.01 0.01 0.01 0.01 0.03 0.03 0.04 0.06 0.04 0.07 0.16 0.27 0.32 0.36 0.48 0.58 0.76 0.96 1.13 1.18 1.42 1.65 1.71 1.83 1.89 2.15 2.39 2.62 3.08 3.26 3.16 2.93 2.62 2.45 2.35 2.30 2.19 2.04 1.88 1.85 1.87 1.97
0.01 0.02 0.01 0.00 0.01 0.01 0.04 0.04 0.05 0.08 0.06 0.07 0.15 0.30 0.38 0.49 0.68 0.75 0.77 0.85 0.95 1.20 1.36 1.51 1.56 1.53 1.76 2.22 2.51 2.56 2.52 2.65 2.70 2.63 2.55 2.52 2.57 2.34 2.13 2.01 1.83 1.70 1.74 1.83
0.02 0.03 0.01 0.01 0.01 0.01 0.02 0.03 0.05 0.10 0.09 0.08 0.14 0.35 0.48 0.58 0.70 0.83 0.91 0.94 1.03 1.23 1.40 1.49 1.47 1.40 1.45 1.60 1.80 1.91 1.95 1.88 1.87 1.94 2.09 2.17 2.23 2.04 1.88 1.81 1.75 1.62 1.58 1.53
0.02 0.02 0.02 0.03 0.03 0.03 0.04 0.05 0.03 0.04 0.07 0.13 0.20 0.51 0.73 0.68 0.76 0.94 0.95 0.94 1.11 1.33 1.25 1.23 1.27 1.21 1.23 1.33 1.43 1.45 1.48 1.49 1.53 1.63 1.73 1.74 1.73 1.64 1.61 1.62 1.54 1.48 1.43 1.40
0.04 0.03 0.03 0.04 0.04 0.04 0.04 0.03 0.04 0.04 0.06 0.10 0.18 0.41 0.75 0.98 1.02 0.93 0.90 0.84 0.99 1.06 0.94 0.88 0.92 0.92 0.95 0.98 1.09 1.19 1.27 1.27 1.28 1.32 1.37 1.41 1.39 1.40 1.42 1.36 1.30 1.24 1.21 1.27
0.04 0.04 0.03 0.03 0.03 0.03 0.03 0.04 0.07 0.10 0.12 0.23 0.30 0.41 0.73 1.04 1.20 0.95 0.87 0.82 0.87 0.86 0.82 0.86 0.84 0.79 0.82 0.89 0.99 1.06 1.12 1.14 1.15 1.16 1.18 1.19 1.19 1.20 1.19 1.15 1.16 1.13 1.09 1.03
0.09 0.09 0.07 0.05 0.04 0.03 0.04 0.07 0.24 0.40 0.50 0.59 0.44 0.53 0.87 0.92 0.92 0.85 0.81 0.84 0.85 0.77 0.72 0.69 0.70 0.72 0.77 0.79 0.80 0.81 0.84 0.89 0.85 0.84 0.89 0.91 0.91 0.90 0.91 0.91 0.89 0.83 0.75 0.74
0.14 0.18 0.10 0.07 0.06 0.06 0.07 0.11 0.34 0.43 0.34 0.44 0.45 0.71 1.09 0.89 0.83 0.75 0.77 0.86 0.80 0.64 0.56 0.55 0.54 0.54 0.58 0.58 0.55 0.56 0.60 0.68 0.72 0.70 0.70 0.62 0.58 0.57 0.57 0.65 0.66 0.61 0.57 0.56
0.08 0.08 0.06 0.05 0.05 0.07 0.11 0.14 0.19 0.33 0.28 0.33 0.43 0.71 0.92 0.79 0.77 0.80 0.89 0.92 0.83 0.62 0.48 0.43 0.40 0.39 0.37 0.36 0.40 0.46 0.52 0.57 0.62 0.61 0.56 0.51 0.46 0.43 0.43 0.47 0.53 0.54 0.58 0.54
0.04 0.03 0.03 0.04 0.04 0.07 0.11 0.11 0.13 0.27 0.32 0.33 0.35 0.67 0.88 0.98 0.96 0.88 0.91 0.80 0.58 0.44 0.34 0.29 0.25 0.24 0.24 0.25 0.30 0.38 0.42 0.42 0.44 0.44 0.43 0.38 0.36 0.37 0.39 0.40 0.42 0.44 0.47 0.49
0.02 0.01 0.03 0.05 0.06 0.07 0.11 0.15 0.22 0.30 0.30 0.37 0.42 0.56 0.58 0.67 0.79 0.85 0.79 0.61 0.40 0.29 0.21 0.20 0.20 0.20 0.21 0.21 0.25 0.32 0.39 0.42 0.43 0.42 0.41 0.35 0.30 0.29 0.30 0.31 0.33 0.38 0.41 0.44
0.01 0.01 0.02 0.06 0.08 0.08 0.08 0.12 0.21 0.33 0.29 0.31 0.38 0.45 0.29 0.31 0.42 0.45 0.42 0.34 0.27 0.21 0.19 0.21 0.23 0.23 0.21 0.23 0.27 0.34 0.39 0.44 0.48 0.49 0.50 0.46 0.40 0.36 0.34 0.32 0.30 0.31 0.34 0.38
0.01 0.01 0.03 0.16 0.26 0.15 0.11 0.10 0.12 0.15 0.17 0.17 0.26 0.30 0.21 0.25 0.32 0.41 0.49 0.49 0.41 0.32 0.23 0.19 0.21 0.23 0.24 0.28 0.33 0.43 0.48 0.50 0.52 0.58 0.65 0.64 0.51 0.46 0.46 0.40 0.34 0.32 0.31 0.31
0.01 0.01 0.03 0.10 0.11 0.08 0.09 0.10 0.08 0.13 0.21 0.18 0.16 0.21 0.23 0.25 0.32 0.40 0.44 0.40 0.32 0.25 0.20 0.17 0.20 0.23 0.26 0.29 0.29 0.32 0.36 0.38 0.44 0.46 0.55 0.66 0.61 0.50 0.38 0.30 0.31 0.33 0.33 0.34
0.02 0.01 0.01 0.02 0.03 0.06 0.09 0.09 0.08 0.08 0.14 0.25 0.19 0.17 0.19 0.20 0.20 0.24 0.25 0.21 0.17 0.16 0.14 0.15 0.18 0.21 0.25 0.25 0.22 0.19 0.17 0.17 0.23 0.28 0.35 0.44 0.39 0.33 0.31 0.28 0.21 0.19 0.24 0.29
0.01 0.01 0.00 0.01 0.03 0.06 0.08 0.11 0.08 0.06 0.06 0.09 0.12 0.17 0.18 0.18 0.19 0.20 0.19 0.17 0.16 0.16 0.13 0.12 0.14 0.17 0.19 0.16 0.11 0.08 0.08 0.11 0.18 0.24 0.29 0.36 0.35 0.28 0.23 0.19 0.14 0.14 0.20 0.27
0.01 0.01 0.00 0.01 0.03 0.04 0.11 0.11 0.07 0.04 0.03 0.04 0.13 0.21 0.19 0.20 0.19 0.18 0.16 0.14 0.12 0.10 0.08 0.07 0.06 0.06 0.05 0.05 0.04 0.05 0.06 0.07 0.15 0.24 0.32 0.37 0.42 0.42 0.31 0.18 0.15 0.18 0.24 0.32
0.03 0.02 0.01 0.01 0.03 0.14 0.12 0.05 0.04 0.04 0.03 0.03 0.06 0.09 0.10 0.09 0.07 0.06 0.06 0.05 0.03 0.03 0.03 0.03 0.02 0.02 0.02 0.02 0.04 0.07 0.06 0.08 0.13 0.23 0.31 0.34 0.38 0.40 0.36 0.31 0.29 0.32 0.38 0.44
0.06 0.04 0.02 0.02 0.03 0.10 0.06 0.05 0.05 0.06 0.04 0.03 0.04 0.04 0.04 0.04 0.04 0.06 0.03 0.02 0.01 0.01 0.01 0.01 0.02 0.01 0.02 0.02 0.06 0.11 0.12 0.15 0.20 0.30 0.39 0.40 0.42 0.42 0.37 0.34 0.38 0.42 0.48 0.49
0.05 0.05 0.07 0.05 0.07 0.11 0.07 0.07 0.09 0.06 0.11 0.08 0.05 0.04 0.03 0.02 0.08 0.10 0.04 0.01 0.01 0.01 0.01 0.02 0.02 0.03 0.04 0.07 0.11 0.16 0.22 0.27 0.35 0.44 0.50 0.49 0.53 0.56 0.52 0.52 0.53 0.53 0.57 0.52
0.04 0.05 0.07 0.09 0.11 0.10 0.08 0.07 0.06 0.09 0.16 0.04 0.02 0.01 0.01 0.02 0.05 0.05 0.02 0.01 0.01 0.01 0.02 0.03 0.04 0.04 0.07 0.10 0.14 0.24 0.29 0.33 0.37 0.40 0.48 0.55 0.61 0.69 0.72 0.77 0.73 0.70 0.65 0.63
0.04 0.07 0.10 0.12 0.17 0.15 0.05 0.03 0.04 0.05 0.02 0.01 0.01 0.01 0.02 0.02 0.01 0.01 0.01 0.01 0.01 0.02 0.03 0.04 0.06 0.06 0.08 0.11 0.18 0.25 0.29 0.32 0.36 0.41 0.50 0.57 0.63 0.63 0.73 0.98 0.98 0.98 0.93 0.81
0.03 0.04 0.05 0.05 0.06 0.03 0.01 0.01 0.01 0.01 0.02 0.02 0.02 0.02 0.02 0.02 0.02 0.02 0.02 0.02 0.02 0.02 0.03 0.05 0.09 0.11 0.14 0.18 0.29 0.41 0.38 0.39 0.44 0.50 0.57 0.61 0.63 0.70 0.84 0.98 1.02 1.07 1.03 0.91
0.01 0.01 0.02 0.03 0.01 0.01 0.01 0.01 0.01 0.01 0.01 0.01 0.01 0.01 0.02 0.03 0.03 0.03 0.03 0.03 0.04 0.04 0.06 0.09 0.14 0.21 0.29 0.34 0.41 0.51 0.48 0.49 0.55 0.57 0.60 0.63 0.69 0.72 0.81 0.97 0.98 0.98 0.95 0.93
0.01 0.01 0.02 0.04 0.02 0.02 0.02 0.02 0.01 0.01 0.01 0.01 0.01 0.02 0.02 0.03 0.04 0.04 0.04 0.05 0.05 0.06 0.07 0.13 0.22 0.31 0.39 0.47 0.53 0.57 0.61 0.67 0.71 0.67 0.64 0.68 0.73 0.79 0.85 0.92 0.97 0.93 0.88 0.79
0.01 0.02 0.03 0.04 0.05 0.06 0.05 0.03 0.02 0.01 0.02 0.02 0.02 0.03 0.03 0.04 0.05 0.05 0.05 0.05 0.06 0.07 0.09 0.14 0.21 0.31 0.40 0.49 0.56 0.61 0.71 0.84 0.92 0.91 0.81 0.81 0.84 0.88 0.94 0.95 0.85 0.71 0.64 0.51

GEFSCGP_prec_meanprecacc_102.txt.gz
Total_Precipitation_Accumulation
0.00 0.00 0.01 0.01 0.01 0.01 0.03 0.04 0.08 0.11 0.08 0.10 0.24 0.38 0.37 0.40 0.52 0.63 0.85 1.04 1.22 1.32 1.56 1.74 1.78 1.93 2.00 2.26 2.48 2.68 3.14 3.31 3.21 2.98 2.66 2.49 2.38 2.33 2.22 2.07 1.90 1.86 1.88 1.98
0.01 0.02 0.01 0.00 0.01 0.01 0.04 0.07 0.10 0.11 0.08 0.08 0.20 0.36 0.41 0.54 0.74 0.79 0.83 0.92 1.04 1.30 1.52 1.62 1.64 1.59 1.85 2.31 2.58 2.62 2.57 2.69 2.74 2.67 2.58 2.55 2.60 2.36 2.15 2.03 1.85 1.72 1.76 1.85
0.03 0.03 0.01 0.01 0.01 0.01 0.03 0.05 0.08 0.11 0.10 0.09 0.18 0.42 0.55 0.68 0.76 0.86 0.94 0.97 1.09 1.30 1.47 1.57 1.56 1.48 1.54 1.68 1.85 1.95 1.98 1.90 1.89 1.96 2.11 2.19 2.25 2.06 1.89 1.82 1.76 1.64 1.59 1.54
0.02 0.02 0.02 0.03 0.03 0.03 0.05 0.05 0.04 0.04 0.09 0.16 0.25 0.66 0.84 0.76 0.81 0.97 0.97 0.97 1.14 1.39 1.31 1.29 1.33 1.27 1.28 1.36 1.45 1.47 1.51 1.51 1.54 1.64 1.74 1.75 1.75 1.65 1.62 1.63 1.55 1.50 1.44 1.40
0.04 0.03 0.03 0.05 0.05 0.04 0.04 0.03 0.04 0.05 0.11 0.17 0.24 0.52 0.83 1.04 1.09 0.97 0.91 0.86 1.02 1.10 0.97 0.91 0.96 0.96 0.98 0.99 1.10 1.19 1.29 1.30 1.30 1.33 1.38 1.42 1.40 1.41 1.43 1.37 1.30 1.24 1.21 1.27
0.04 0.04 0.03 0.03 0.03 0.03 0.03 0.04 0.09 0.16 0.26 0.43 0.38 0.48 0.81 1.08 1.22 0.98 0.88 0.83 0.89 0.87 0.83 0.88 0.87 0.81 0.83 0.90 0.99 1.07 1.15 1.17 1.18 1.18 1.19 1.20 1.20 1.20 1.19 1.16 1.17 1.13 1.09 1.03
0.11 0.10 0.07 0.05 0.04 0.04 0.04 0.10 0.35 0.59 0.75 0.75 0.51 0.56 0.90 0.93 0.92 0.85 0.81 0.86 0.88 0.80 0.72 0.70 0.70 0.72 0.78 0.80 0.80 0.82 0.86 0.92 0.87 0.86 0.91 0.92 0.92 0.91 0.92 0.92 0.89 0.83 0.75 0.74
0.16 0.23 0.12 0.07 0.06 0.06 0.07 0.12 0.40 0.52 0.45 0.53 0.49 0.74 1.12 0.90 0.83 0.75 0.77 0.86 0.81 0.66 0.57 0.55 0.54 0.55 0.58 0.58 0.55 0.56 0.62 0.70 0.74 0.72 0.72 0.63 0.59 0.58 0.57 0.66 0.66 0.61 0.57 0.56
0.09 0.10 0.06 0.05 0.05 0.07 0.12 0.14 0.19 0.34 0.30 0.36 0.47 0.74 0.95 0.81 0.77 0.80 0.89 0.92 0.83 0.63 0.49 0.43 0.40 0.39 0.38 0.37 0.40 0.46 0.52 0.58 0.63 0.61 0.57 0.51 0.46 0.43 0.43 0.47 0.53 0.54 0.58 0.54
0.04 0.03 0.04 0.04 0.04 0.07 0.11 0.11 0.13 0.28 0.33 0.37 0.40 0.71 0.91 0.99 0.96 0.88 0.91 0.80 0.58 0.44 0.34 0.29 0.25 0.24 0.24 0.26 0.30 0.38 0.42 0.42 0.44 0.44 0.43 0.38 0.36 0.37 0.39 0.40 0.42 0.44 0.47 0.50
0.02 0.01 0.03 0.05 0.07 0.08 0.11 0.15 0.22 0.31 0.30 0.40 0.49 0.63 0.62 0.68 0.79 0.85 0.79 0.61 0.40 0.29 0.21 0.20 0.20 0.20 0.21 0.21 0.25 0.32 0.39 0.42 0.43 0.42 0.41 0.35 0.30 0.29 0.30 0.31 0.33 0.39 0.41 0.44
0.01 0.01 0.02 0.07 0.10 0.09 0.09 0.12 0.21 0.33 0.30 0.31 0.41 0.48 0.31 0.32 0.42 0.45 0.42 0.34 0.27 0.21 0.19 0.21 0.23 0.23 0.21 0.23 0.27 0.34 0.39 0.44 0.48 0.49 0.50 0.46 0.40 0.36 0.34 0.32 0.30 0.31 0.35 0.38
0.01 0.01 0.03 0.21 0.34 0.20 0.12 0.10 0.12 0.16 0.17 0.17 0.28 0.33 0.23 0.26 0.32 0.41 0.49 0.49 0.41 0.32 0.23 0.19 0.21 0.23 0.24 0.28 0.33 0.43 0.48 0.50 0.52 0.58 0.65 0.64 0.51 0.46 0.46 0.40 0.34 0.32 0.32 0.32
0.01 0.01 0.04 0.20 0.26 0.17 0.13 0.11 0.08 0.13 0.21 0.18 0.17 0.22 0.23 0.26 0.32 0.40 0.44 0.40 0.32 0.25 0.20 0.17 0.20 0.23 0.26 0.29 0.29 0.32 0.36 0.38 0.44 0.46 0.55 0.66 0.61 0.50 0.38 0.30 0.31 0.33 0.33 0.34
0.02 0.01 0.01 0.03 0.05 0.08 0.13 0.10 0.08 0.09 0.14 0.26 0.20 0.18 0.20 0.20 0.20 0.24 0.25 0.21 0.17 0.16 0.14 0.15 0.18 0.21 0.25 0.25 0.22 0.19 0.17 0.17 0.23 0.28 0.35 0.44 0.39 0.33 0.31 0.28 0.21 0.20 0.24 0.29
0.01 0.01 0.00 0.01 0.04 0.06 0.09 0.11 0.08 0.06 0.06 0.09 0.12 0.18 0.19 0.18 0.19 0.20 0.19 0.17 0.16 0.16 0.13 0.12 0.14 0.17 0.19 0.16 0.11 0.08 0.08 0.11 0.18 0.24 0.29 0.36 0.35 0.28 0.23 0.19 0.14 0.14 0.20 0.28
0.02 0.01 0.01 0.02 0.03 0.05 0.11 0.11 0.07 0.04 0.03 0.04 0.13 0.21 0.20 0.20 0.19 0.18 0.16 0.14 0.12 0.10 0.08 0.07 0.06 0.06 0.05 0.05 0.04 0.05 0.06 0.07 0.15 0.24 0.32 0.37 0.42 0.42 0.31 0.18 0.16 0.19 0.25 0.33
0.04 0.02 0.01 0.02 0.05 0.16 0.13 0.06 0.04 0.04 0.03 0.03 0.06 0.09 0.10 0.09 0.07 0.06 0.06 0.05 0.03 0.03 0.03 0.03 0.02 0.02 0.02 0.02 0.04 0.07 0.06 0.08 0.13 0.23 0.31 0.34 0.38 0.40 0.36 0.31 0.29 0.32 0.39 0.45
0.06 0.04 0.02 0.03 0.05 0.11 0.07 0.06 0.06 0.06 0.05 0.03 0.04 0.04 0.04 0.04 0.04 0.06 0.03 0.02 0.01 0.01 0.01 0.01 0.02 0.01 0.02 0.02 0.06 0.11 0.12 0.15 0.20 0.30 0.39 0.40 0.42 0.42 0.37 0.35 0.39 0.43 0.49 0.50
0.06 0.06 0.07 0.06 0.09 0.13 0.10 0.10 0.10 0.06 0.12 0.08 0.05 0.04 0.03 0.02 0.08 0.11 0.05 0.01 0.01 0.02 0.02 0.02 0.02 0.03 0.04 0.07 0.11 0.16 0.22 0.27 0.35 0.44 0.50 0.49 0.53 0.56 0.52 0.52 0.54 0.53 0.57 0.53
0.11 0.08 0.08 0.10 0.13 0.14 0.13 0.13 0.10 0.13 0.19 0.04 0.02 0.01 0.01 0.02 0.05 0.05 0.03 0.01 0.01 0.01 0.02 0.03 0.04 0.04 0.07 0.10 0.14 0.24 0.29 0.33 0.37 0.40 0.48 0.55 0.62 0.69 0.73 0.77 0.74 0.70 0.66 0.64
0.09 0.11 0.13 0.15 0.22 0.21 0.10 0.07 0.11 0.12 0.05 0.02 0.02 0.02 0.02 0.02 0.01 0.01 0.01 0.01 0.01 0.02 0.03 0.04 0.06 0.06 0.08 0.11 0.18 0.25 0.29 0.32 0.36 0.41 0.50 0.57 0.63 0.64 0.73 0.98 0.98 0.99 0.95 0.83
0.06 0.07 0.09 0.13 0.16 0.09 0.06 0.05 0.06 0.05 0.02 0.02 0.03 0.03 0.03 0.02 0.02 0.02 0.02 0.02 0.02 0.02 0.03 0.05 0.09 0.11 0.14 0.18 0.29 0.41 0.38 0.39 0.44 0.50 0.57 0.62 0.63 0.70 0.85 0.98 1.03 1.08 1.05 0.92
0.07 0.05 0.09 0.11 0.09 0.10 0.06 0.04 0.03 0.02 0.02 0.01 0.01 0.01 0.02 0.03 0.03 0.03 0.03 0.03 0.04 0.05 0.06 0.09 0.14 0.21 0.29 0.34 0.41 0.51 0.48 0.49 0.55 0.57 0.60 0.64 0.69 0.72 0.81 0.97 0.99 0.98 0.95 0.93
0.05 0.07 0.10 0.15 0.10 0.07 0.05 0.05 0.03 0.01 0.01 0.01 0.01 0.02 0.03 0.04 0.04 0.04 0.05 0.05 0.06 0.06 0.07 0.13 0.22 0.31 0.39 0.47 0.53 0.57 0.61 0.67 0.71 0.67 0.64 0.68 0.73 0.79 0.86 0.92 0.98 0.93 0.88 0.79
0.03 0.07 0.11 0.15 0.12 0.16 0.11 0.05 0.03 0.02 0.02 0.02 0.02 0.03 0.04 0.04 0.05 0.05 0.05 0.05 0.06 0.07 0.09 0.14 0.22 0.31 0.40 0.49 0.56 0.61 0.71 0.84 0.92 0.91 0.81 0.81 0.85 0.88 0.95 0.95 0.86 0.72 0.64 0.51

GEFSCGP_prec_meanprecacc_108.txt.gz
Total_Precipitation_Accumulation
0.00 0.01 0.02 0.02 0.02 0.02 0.04 0.05 0.09 0.12 0.11 0.13 0.29 0.45 0.44 0.53 0.76 0.90 1.10 1.32 1.50 1.68 1.91 2.03 1.97 2.10 2.19 2.40 2.56 2.72 3.20 3.34 3.23 3.00 2.68 2.50 2.39 2.34 2.23 2.08 1.92 1.89 1.90 2.00
0.01 0.03 0.01 0.01 0.02 0.02 0.05 0.08 0.11 0.13 0.10 0.12 0.25 0.42 0.48 0.71 0.98 0.99 0.97 1.06 1.20 1.51 1.71 1.84 1.85 1.80 2.04 2.44 2.66 2.67 2.60 2.71 2.75 2.68 2.58 2.56 2.60 2.37 2.16 2.04 1.87 1.75 1.79 1.87
0.03 0.03 0.01 0.01 0.02 0.02 0.04 0.05 0.09 0.14 0.13 0.16 0.24 0.50 0.64 0.81 0.92 0.98 1.04 1.07 1.18 1.42 1.59 1.67 1.66 1.60 1.69 1.81 1.94 1.99 2.01 1.92 1.90 1.96 2.11 2.19 2.25 2.06 1.89 1.83 1.76 1.64 1.59 1.55
0.03 0.02 0.03 0.03 0.04 0.04 0.05 0.05 0.04 0.06 0.13 0.22 0.30 0.75 0.95 0.88 0.91 1.05 1.04 1.04 1.24 1.48 1.38 1.36 1.39 1.37 1.40 1.44 1.50 1.50 1.53 1.54 1.55 1.65 1.75 1.76 1.75 1.66 1.63 1.64 1.55 1.50 1.44 1.41
0.05 0.04 0.03 0.05 0.05 0.04 0.04 0.04 0.04 0.07 0.16 0.24 0.30 0.61 0.92 1.11 1.16 1.02 0.97 0.91 1.08 1.17 1.02 0.98 1.03 1.00 1.03 1.02 1.12 1.20 1.30 1.31 1.32 1.35 1.39 1.43 1.41 1.41 1.43 1.37 1.30 1.24 1.21 1.27
0.05 0.05 0.04 0.03 0.03 0.03 0.03 0.05 0.10 0.19 0.35 0.53 0.44 0.54 0.88 1.15 1.26 1.02 0.93 0.87 0.93 0.91 0.86 0.90 0.90 0.84 0.85 0.91 1.00 1.08 1.15 1.18 1.19 1.19 1.20 1.20 1.20 1.20 1.19 1.16 1.17 1.13 1.09 1.03
0.12 0.11 0.09 0.05 0.04 0.05 0.04 0.11 0.38 0.64 0.85 0.84 0.55 0.62 0.95 0.96 0.95 0.88 0.84 0.90 0.93 0.83 0.74 0.70 0.71 0.72 0.78 0.81 0.82 0.82 0.87 0.93 0.88 0.86 0.91 0.92 0.92 0.91 0.93 0.92 0.89 0.83 0.75 0.74
0.17 0.24 0.14 0.08 0.07 0.07 0.08 0.13 0.43 0.59 0.59 0.66 0.56 0.80 1.16 0.94 0.86 0.78 0.78 0.87 0.84 0.69 0.59 0.56 0.54 0.55 0.59 0.59 0.56 0.57 0.63 0.71 0.74 0.72 0.72 0.64 0.59 0.58 0.57 0.66 0.66 0.61 0.57 0.56
0.10 0.10 0.07 0.06 0.07 0.09 0.13 0.16 0.21 0.39 0.39 0.49 0.60 0.83 1.01 0.83 0.78 0.81 0.89 0.93 0.84 0.64 0.49 0.43 0.41 0.39 0.38 0.38 0.41 0.47 0.53 0.58 0.63 0.61 0.57 0.52 0.47 0.43 0.43 0.47 0.53 0.54 0.58 0.54
0.05 0.03 0.05 0.05 0.06 0.09 0.12 0.12 0.15 0.31 0.39 0.48 0.54 0.80 0.99 1.02 0.97 0.88 0.92 0.80 0.58 0.44 0.34 0.30 0.26 0.24 0.25 0.26 0.31 0.38 0.42 0.42 0.44 0.44 0.43 0.38 0.36 0.37 0.39 0.40 0.42 0.44 0.47 0.50
0.03 0.02 0.04 0.07 0.09 0.10 0.14 0.17 0.24 0.33 0.33 0.46 0.60 0.69 0.66 0.71 0.80 0.85 0.79 0.61 0.40 0.29 0.21 0.20 0.20 0.21 0.22 0.21 0.25 0.33 0.39 0.42 0.43 0.42 0.41 0.35 0.30 0.29 0.30 0.31 0.33 0.39 0.41 0.44
0.02 0.02 0.04 0.10 0.13 0.11 0.11 0.14 0.23 0.35 0.32 0.35 0.47 0.51 0.33 0.34 0.42 0.46 0.42 0.34 0.27 0.22 0.19 0.21 0.23 0.23 0.22 0.23 0.27 0.34 0.39 0.44 0.48 0.50 0.51 0.46 0.40 0.36 0.34 0.32 0.30 0.31 0.35 0.38
0.02 0.02 0.05 0.23 0.37 0.23 0.13 0.11 0.13 0.17 0.19 0.20 0.32 0.37 0.24 0.26 0.33 0.41 0.49 0.49 0.42 0.33 0.23 0.19 0.21 0.23 0.24 0.28 0.33 0.43 0.49 0.50 0.53 0.58 0.65 0.64 0.51 0.46 0.46 0.40 0.34 0.32 0.32 0.32
0.03 0.03 0.05 0.22 0.29 0.20 0.16 0.12 0.09 0.14 0.23 0.21 0.20 0.27 0.26 0.27 0.33 0.40 0.44 0.40 0.32 0.25 0.20 0.18 0.20 0.23 0.26 0.29 0.29 0.32 0.36 0.38 0.44 0.46 0.55 0.66 0.61 0.50 0.38 0.30 0.31 0.33 0.33 0.34
0.03 0.02 0.03 0.05 0.07 0.10 0.15 0.12 0.09 0.09 0.15 0.26 0.22 0.20 0.22 0.21 0.20 0.24 0.25 0.22 0.18 0.16 0.14 0.15 0.18 0.21 0.25 0.25 0.22 0.20 0.17 0.17 0.23 0.28 0.35 0.44 0.39 0.33 0.31 0.28 0.22 0.20 0.24 0.29
0.04 0.03 0.02 0.03 0.05 0.08 0.10 0.12 0.09 0.07 0.07 0.10 0.14 0.20 0.20 0.20 0.20 0.21 0.19 0.17 0.16 0.16 0.13 0.12 0.14 0.17 0.19 0.16 0.11 0.08 0.08 0.11 0.18 0.24 0.29 0.36 0.35 0.28 0.23 0.19 0.14 0.14 0.20 0.28
0.08 0.05 0.04 0.04 0.05 0.07 0.13 0.13 0.08 0.05 0.04 0.05 0.14 0.23 0.21 0.21 0.20 0.18 0.16 0.14 0.12 0.10 0.08 0.07 0.06 0.06 0.05 0.05 0.04 0.05 0.06 0.07 0.15 0.24 0.32 0.37 0.42 0.42 0.31 0.18 0.16 0.19 0.25 0.33
0.09 0.06 0.03 0.04 0.07 0.18 0.15 0.08 0.06 0.06 0.04 0.06 0.08 0.10 0.11 0.10 0.07 0.06 0.06 0.05 0.04 0.04 0.04 0.03 0.02 0.02 0.02 0.03 0.04 0.07 0.07 0.08 0.13 0.23 0.31 0.34 0.39 0.40 0.36 0.31 0.29 0.32 0.39 0.45
0.09 0.08 0.07 0.05 0.08 0.13 0.10 0.10 0.10 0.10 0.08 0.07 0.07 0.05 0.05 0.05 0.05 0.07 0.04 0.03 0.03 0.04 0.04 0.03 0.02 0.03 0.03 0.04 0.07 0.12 0.12 0.15 0.20 0.30 0.39 0.40 0.42 0.42 0.37 0.35 0.39 0.43 0.49 0.50
0.10 0.10 0.12 0.12 0.14 0.17 0.14 0.15 0.14 0.12 0.16 0.10 0.08 0.06 0.04 0.04 0.08 0.12 0.06 0.02 0.02 0.04 0.07 0.06 0.04 0.05 0.06 0.08 0.11 0.16 0.22 0.27 0.35 0.44 0.50 0.49 0.53 0.56 0.52 0.52 0.54 0.54 0.58 0.53
0.20 0.17 0.15 0.17 0.21 0.22 0.18 0.18 0.14 0.20 0.26 0.11 0.09 0.07 0.04 0.04 0.06 0.06 0.04 0.02 0.01 0.02 0.02 0.03 0.05 0.05 0.07 0.10 0.14 0.24 0.29 0.33 0.37 0.40 0.48 0.55 0.62 0.69 0.73 0.77 0.74 0.71 0.67 0.64
0.17 0.23 0.28 0.29 0.35 0.31 0.18 0.13 0.17 0.22 0.18 0.14 0.12 0.08 0.05 0.04 0.03 0.01 0.01 0.02 0.01 0.02 0.03 0.04 0.06 0.06 0.08 0.11 0.18 0.25 0.30 0.32 0.36 0.41 0.50 0.58 0.64 0.64 0.73 0.98 0.98 1.00 0.95 0.83
0.16 0.19 0.24 0.28 0.28 0.18 0.15 0.17 0.17 0.17 0.18 0.15 0.12 0.08 0.05 0.04 0.03 0.03 0.03 0.03 0.03 0.03 0.04 0.06 0.10 0.12 0.14 0.18 0.29 0.41 0.39 0.39 0.44 0.50 0.57 0.62 0.63 0.70 0.85 0.98 1.03 1.08 1.05 0.92
0.19 0.17 0.22 0.27 0.27 0.26 0.18 0.16 0.18 0.14 0.12 0.10 0.09 0.07 0.07 0.07 0.07 0.06 0.05 0.05 0.06 0.06 0.07 0.10 0.15 0.22 0.30 0.34 0.41 0.51 0.48 0.49 0.55 0.57 0.61 0.64 0.69 0.72 0.81 0.98 0.99 0.99 0.96 0.94
0.12 0.17 0.23 0.29 0.24 0.22 0.20 0.23 0.20 0.13 0.10 0.09 0.07 0.06 0.07 0.07 0.07 0.06 0.06 0.07 0.08 0.08 0.09 0.15 0.24 0.32 0.40 0.48 0.54 0.58 0.61 0.68 0.72 0.68 0.65 0.69 0.74 0.80 0.86 0.92 0.98 0.93 0.88 0.79
0.08 0.16 0.26 0.29 0.26 0.35 0.32 0.21 0.13 0.09 0.07 0.07 0.06 0.05 0.06 0.07 0.07 0.07 0.06 0.07 0.07 0.08 0.10 0.16 0.24 0.33 0.42 0.50 0.58 0.63 0.73 0.86 0.94 0.93 0.83 0.82 0.85 0.89 0.95 0.95 0.86 0.72 0.64 0.51